| time (UTC) | temp F | wind direction | speed MPH | gust MPH | rain 1hr in | rain 24hr in | rain mn in | humidity % | barometer mb |
| 20260903193030 | 99 | 124 | 1.0 | 5.0 | 0.00 | 0.00 | 0.00 | 35 | 1011.0 |
| 20260903192938 | 99 | 124 | 0.0 | 5.0 | 0.00 | 0.00 | 0.00 | 34 | 1011.0 |
| 20260903192841 | 99 | 124 | 1.0 | 5.0 | 0.00 | 0.00 | 0.00 | 34 | 1011.1 |
| 20260903192734 | 99 | 124 | 2.0 | 5.0 | 0.00 | 0.00 | 0.00 | 34 | 1011.1 |
| 20260903192636 | 99 | 124 | 2.0 | 6.0 | 0.00 | 0.00 | 0.00 | 34 | 1011.1 |
| 20260903192538 | 99 | 124 | 1.0 | 6.0 | 0.00 | 0.00 | 0.00 | 33 | 1011.1 |
| 20260903192426 | 100 | 124 | 2.0 | 6.0 | 0.00 | 0.00 | 0.00 | 33 | 1011.2 |
| 20260903192328 | 100 | 124 | 2.0 | 6.0 | 0.00 | 0.00 | 0.00 | 33 | 1011.2 |
| 20260903192230 | 100 | 124 | 1.0 | 6.0 | 0.00 | 0.00 | 0.00 | 33 | 1011.2 |
| 20260903192142 | 100 | 124 | 1.0 | 7.0 | 0.00 | 0.00 | 0.00 | 33 | 1011.2 |
| 20260903192025 | 99 | 124 | 1.0 | 7.0 | 0.00 | 0.00 | 0.00 | 34 | 1011.2 |
| 20260903191923 | 99 | 124 | 2.0 | 7.0 | 0.00 | 0.00 | 0.00 | 36 | 1011.2 |
| 20260903191832 | 98 | 124 | 2.0 | 7.0 | 0.00 | 0.00 | 0.00 | 34 | 1011.2 |
| 20260903191735 | 98 | 124 | 1.0 | 7.0 | 0.00 | 0.00 | 0.00 | 34 | 1011.3 |
| 20260903191616 | 98 | 124 | 1.0 | 7.0 | 0.00 | 0.00 | 0.00 | 34 | 1011.3 |
| 20260903191524 | 99 | 124 | 1.0 | 7.0 | 0.00 | 0.00 | 0.00 | 34 | 1011.4 |
| 20260903191430 | 99 | 124 | 3.0 | 7.0 | 0.00 | 0.00 | 0.00 | 34 | 1011.4 |
| 20260903191339 | 99 | 124 | 3.0 | 7.0 | 0.00 | 0.00 | 0.00 | 34 | 1011.4 |
| 20260903191219 | 99 | 117 | 3.0 | 5.0 | 0.00 | 0.00 | 0.00 | 35 | 1011.4 |
| 20260903191122 | 99 | 116 | 2.0 | 5.0 | 0.00 | 0.00 | 0.00 | 34 | 1011.6 |
| 20260903191023 | 99 | 112 | 1.0 | 5.0 | 0.00 | 0.00 | 0.00 | 34 | 1011.6 |
| 20260903190933 | 99 | 112 | 2.0 | 5.0 | 0.00 | 0.00 | 0.00 | 34 | 1011.6 |
| 20260903190820 | 99 | 111 | 2.0 | 12.0 | 0.00 | 0.00 | 0.00 | 34 | 1011.6 |
| 20260903190723 | 99 | 110 | 2.0 | 12.0 | 0.00 | 0.00 | 0.00 | 34 | 1011.6 |
| 20260903190624 | 99 | 108 | 2.0 | 12.0 | 0.00 | 0.00 | 0.00 | 34 | 1011.6 |
| 20260903190534 | 99 | 108 | 2.0 | 12.0 | 0.00 | 0.00 | 0.00 | 34 | 1011.6 |
| 20260903190433 | 99 | 105 | 1.0 | 12.0 | 0.00 | 0.00 | 0.00 | 34 | 1011.6 |
| 20260903190315 | 100 | 105 | 1.0 | 12.0 | 0.00 | 0.00 | 0.00 | 33 | 1011.6 |
| 20260903190249 | 100 | 105 | 1.0 | 12.0 | 0.00 | 0.00 | 0.00 | 33 | 1011.6 |
| 20260903190130 | 100 | 105 | 3.0 | 12.0 | 0.00 | 0.00 | 0.00 | 34 | 1011.6 |
| 20260903190030 | 100 | 105 | 3.0 | 12.0 | 0.00 | 0.00 | 0.00 | 35 | 1011.6 |
| 20260903185917 | 100 | 109 | 2.0 | 10.0 | 0.00 | 0.00 | 0.00 | 34 | 1011.7 |
| 20260903185845 | 100 | 110 | 2.0 | 10.0 | 0.00 | 0.00 | 0.00 | 34 | 1011.6 |
| 20260903185755 | 100 | 109 | 2.0 | 10.0 | 0.00 | 0.00 | 0.00 | 34 | 1011.6 |
| 20260903185617 | 100 | 108 | 3.0 | 10.0 | 0.00 | 0.00 | 0.00 | 35 | 1011.7 |
| 20260903185524 | 99 | 108 | 2.0 | 10.0 | 0.00 | 0.00 | 0.00 | 35 | 1011.6 |
| 20260903185425 | 98 | 107 | 2.0 | 9.0 | 0.00 | 0.00 | 0.00 | 35 | 1011.7 |
| 20260903185335 | 98 | 105 | 1.0 | 5.0 | 0.00 | 0.00 | 0.00 | 35 | 1011.7 |
| 20260903185237 | 99 | 105 | 1.0 | 5.0 | 0.00 | 0.00 | 0.00 | 35 | 1011.8 |
| 20260903185118 | 99 | 105 | 1.0 | 3.0 | 0.00 | 0.00 | 0.00 | 34 | 1011.8 |
| 20260903185028 | 100 | 105 | 1.0 | 3.0 | 0.00 | 0.00 | 0.00 | 34 | 1011.8 |
| 20260903184929 | 100 | 105 | 0.0 | 2.0 | 0.00 | 0.00 | 0.00 | 34 | 1011.8 |
| 20260903184835 | 101 | 105 | 0.0 | 2.0 | 0.00 | 0.00 | 0.00 | 35 | 1011.8 |
| 20260903184717 | 101 | 105 | 0.0 | 2.0 | 0.00 | 0.00 | 0.00 | 34 | 1011.8 |
| 20260903184627 | 101 | 105 | 0.0 | 3.0 | 0.00 | 0.00 | 0.00 | 33 | 1011.8 |
| 20260903184528 | 101 | 105 | 1.0 | 3.0 | 0.00 | 0.00 | 0.00 | 34 | 1011.8 |
| 20260903184430 | 101 | 105 | 1.0 | 6.0 | 0.00 | 0.00 | 0.00 | 35 | 1011.8 |
| 20260903184340 | 101 | 105 | 1.0 | 6.0 | 0.00 | 0.00 | 0.00 | 35 | 1011.9 |
| 20260903184225 | 100 | 105 | 1.0 | 6.0 | 0.00 | 0.00 | 0.00 | 37 | 1011.9 |
| 20260903184134 | 100 | 107 | 1.0 | 6.0 | 0.00 | 0.00 | 0.00 | 36 | 1011.9 |
| 20260903184035 | 100 | 107 | 1.0 | 6.0 | 0.00 | 0.00 | 0.00 | 34 | 1011.9 |
| 20260903183916 | 100 | 108 | 1.0 | 6.0 | 0.00 | 0.00 | 0.00 | 34 | 1012.0 |
| 20260903183818 | 101 | 108 | 1.0 | 6.0 | 0.00 | 0.00 | 0.00 | 35 | 1012.0 |
| 20260903183726 | 101 | 108 | 2.0 | 6.0 | 0.00 | 0.00 | 0.00 | 34 | 1012.0 |
| 20260903183634 | 102 | 109 | 2.0 | 6.0 | 0.00 | 0.00 | 0.00 | 33 | 1012.0 |
| 20260903183516 | 102 | 108 | 2.0 | 6.0 | 0.00 | 0.00 | 0.00 | 35 | 1012.0 |
| 20260903183425 | 101 | 108 | 2.0 | 6.0 | 0.00 | 0.00 | 0.00 | 36 | 1012.0 |
| 20260903183327 | 100 | 110 | 1.0 | 5.0 | 0.00 | 0.00 | 0.00 | 36 | 1012.0 |
| 20260903183228 | 100 | 110 | 1.0 | 5.0 | 0.00 | 0.00 | 0.00 | 36 | 1012.1 |
| 20260903183137 | 100 | 111 | 0.0 | 5.0 | 0.00 | 0.00 | 0.00 | 35 | 1012.1 |
| 20260903183023 | 100 | 111 | 0.0 | 5.0 | 0.00 | 0.00 | 0.00 | 35 | 1012.2 |
| 20260903182944 | 101 | 113 | 1.0 | 5.0 | 0.00 | 0.00 | 0.00 | 35 | 1012.2 |
| 20260903182834 | 101 | 113 | 1.0 | 5.0 | 0.00 | 0.00 | 0.00 | 35 | 1012.2 |
| 20260903182756 | 101 | 114 | 2.0 | 5.0 | 0.00 | 0.00 | 0.00 | 36 | 1012.1 |
| 20260903182643 | 101 | 114 | 2.0 | 5.0 | 0.00 | 0.00 | 0.00 | 36 | 1012.2 |
| 20260903182524 | 100 | 116 | 2.0 | 5.0 | 0.00 | 0.00 | 0.00 | 36 | 1012.2 |
| 20260903182427 | 99 | 119 | 2.0 | 5.0 | 0.00 | 0.00 | 0.00 | 37 | 1012.2 |
| 20260903182339 | 99 | 122 | 2.0 | 5.0 | 0.00 | 0.00 | 0.00 | 37 | 1012.2 |
| 20260903182222 | 98 | 124 | 1.0 | 4.0 | 0.00 | 0.00 | 0.00 | 36 | 1012.3 |
| 20260903182124 | 98 | 124 | 1.0 | 3.0 | 0.00 | 0.00 | 0.00 | 36 | 1012.3 |
| 20260903182033 | 98 | 124 | 1.0 | 3.0 | 0.00 | 0.00 | 0.00 | 36 | 1012.3 |
| 20260903181934 | 99 | 124 | 1.0 | 3.0 | 0.00 | 0.00 | 0.00 | 36 | 1012.3 |
| 20260903181816 | 99 | 124 | 1.0 | 3.0 | 0.00 | 0.00 | 0.00 | 37 | 1012.3 |
| 20260903181730 | 99 | 124 | 1.0 | 3.0 | 0.00 | 0.00 | 0.00 | 38 | 1012.3 |
| 20260903181633 | 99 | 124 | 0.0 | 2.0 | 0.00 | 0.00 | 0.00 | 36 | 1012.4 |
| 20260903181602 | 99 | 124 | 0.0 | 2.0 | 0.00 | 0.00 | 0.00 | 36 | 1012.4 |
| 20260903181444 | 100 | 124 | 0.0 | 2.0 | 0.00 | 0.00 | 0.00 | 34 | 1012.4 |
| 20260903181325 | 100 | 124 | 0.0 | 2.0 | 0.00 | 0.00 | 0.00 | 38 | 1012.4 |
| 20260903181234 | 100 | 124 | 1.0 | 3.0 | 0.00 | 0.00 | 0.00 | 39 | 1012.4 |
| 20260903181117 | 99 | 124 | 1.0 | 8.0 | 0.00 | 0.00 | 0.00 | 38 | 1012.4 |
| 20260903181023 | 98 | 124 | 1.0 | 8.0 | 0.00 | 0.00 | 0.00 | 37 | 1012.5 |
| 20260903180925 | 98 | 124 | 0.0 | 8.0 | 0.00 | 0.00 | 0.00 | 39 | 1012.5 |
| 20260903180834 | 97 | 124 | 0.0 | 8.0 | 0.00 | 0.00 | 0.00 | 40 | 1012.5 |
| 20260903180716 | 96 | 124 | 0.0 | 8.0 | 0.00 | 0.00 | 0.00 | 38 | 1012.5 |
| 20260903180617 | 97 | 124 | 1.0 | 8.0 | 0.00 | 0.00 | 0.00 | 37 | 1012.6 |
| 20260903180519 | 97 | 124 | 1.0 | 8.0 | 0.00 | 0.00 | 0.00 | 38 | 1012.5 |
| 20260903180433 | 97 | 124 | 2.0 | 8.0 | 0.00 | 0.00 | 0.00 | 37 | 1012.5 |
| 20260903180315 | 97 | 124 | 2.0 | 8.0 | 0.00 | 0.00 | 0.00 | 37 | 1012.7 |
| 20260903180217 | 97 | 124 | 2.0 | 4.0 | 0.00 | 0.00 | 0.00 | 39 | 1012.7 |
| 20260903180118 | 96 | 124 | 1.0 | 4.0 | 0.00 | 0.00 | 0.00 | 39 | 1012.7 |
| 20260903180039 | 96 | 124 | 1.0 | 4.0 | 0.00 | 0.00 | 0.00 | 38 | 1012.7 |
| 20260903175929 | 96 | 124 | 2.0 | 4.0 | 0.00 | 0.00 | 0.00 | 38 | 1012.7 |
| 20260903175841 | 96 | 124 | 1.0 | 4.0 | 0.00 | 0.00 | 0.00 | 38 | 1012.7 |
| 20260903175723 | 96 | 124 | 1.0 | 4.0 | 0.00 | 0.00 | 0.00 | 38 | 1012.7 |
| 20260903175624 | 96 | 124 | 1.0 | 4.0 | 0.00 | 0.00 | 0.00 | 38 | 1012.8 |
| 20260903175532 | 96 | 124 | 1.0 | 4.0 | 0.00 | 0.00 | 0.00 | 38 | 1012.8 |
| 20260903175441 | 96 | 124 | 0.0 | 4.0 | 0.00 | 0.00 | 0.00 | 38 | 1012.9 |
| 20260903175321 | 96 | 124 | 0.0 | 4.0 | 0.00 | 0.00 | 0.00 | 37 | 1012.9 |
| 20260903175223 | 96 | 124 | 1.0 | 4.0 | 0.00 | 0.00 | 0.00 | 37 | 1012.9 |
| 20260903175136 | 97 | 124 | 1.0 | 4.0 | 0.00 | 0.00 | 0.00 | 38 | 1012.9 |
| 20260903175033 | 96 | 124 | 1.0 | 4.0 | 0.00 | 0.00 | 0.00 | 39 | 1012.8 |
| 20260903174941 | 96 | 124 | 1.0 | 4.0 | 0.00 | 0.00 | 0.00 | 39 | 1012.9 |
| 20260903174823 | 95 | 124 | 2.0 | 4.0 | 0.00 | 0.00 | 0.00 | 38 | 1013.0 |
| 20260903174725 | 96 | 124 | 2.0 | 7.0 | 0.00 | 0.00 | 0.00 | 39 | 1013.0 |
| 20260903174655 | 96 | 124 | 2.0 | 7.0 | 0.00 | 0.00 | 0.00 | 39 | 1013.0 |
| 20260903174555 | 96 | 124 | 2.0 | 7.0 | 0.00 | 0.00 | 0.00 | 38 | 1012.9 |
| 20260903174424 | 96 | 124 | 2.0 | 7.0 | 0.00 | 0.00 | 0.00 | 38 | 1012.8 |
| 20260903174346 | 96 | 124 | 2.0 | 7.0 | 0.00 | 0.00 | 0.00 | 38 | 1012.9 |
| 20260903174233 | 96 | 124 | 2.0 | 7.0 | 0.00 | 0.00 | 0.00 | 38 | 1012.9 |
| 20260903174141 | 96 | 124 | 2.0 | 7.0 | 0.00 | 0.00 | 0.00 | 38 | 1012.9 |
| 20260903174020 | 96 | 124 | 2.0 | 7.0 | 0.00 | 0.00 | 0.00 | 39 | 1012.9 |
| 20260903173921 | 96 | 124 | 3.0 | 7.0 | 0.00 | 0.00 | 0.00 | 38 | 1012.9 |
| 20260903173831 | 96 | 122 | 2.0 | 4.0 | 0.00 | 0.00 | 0.00 | 39 | 1012.9 |
| 20260903173717 | 95 | 120 | 1.0 | 4.0 | 0.00 | 0.00 | 0.00 | 38 | 1013.0 |
| 20260903173619 | 96 | 120 | 1.0 | 5.0 | 0.00 | 0.00 | 0.00 | 38 | 1013.0 |
| 20260903173527 | 96 | 120 | 1.0 | 5.0 | 0.00 | 0.00 | 0.00 | 38 | 1013.0 |
| 20260903173448 | 96 | 120 | 1.0 | 5.0 | 0.00 | 0.00 | 0.00 | 37 | 1013.0 |
| 20260903173335 | 96 | 120 | 2.0 | 5.0 | 0.00 | 0.00 | 0.00 | 38 | 1013.0 |
| 20260903173235 | 95 | 120 | 1.0 | 5.0 | 0.00 | 0.00 | 0.00 | 38 | 1013.0 |
| 20260903173144 | 95 | 120 | 2.0 | 7.0 | 0.00 | 0.00 | 0.00 | 38 | 1013.0 |
| 20260903173023 | 95 | 120 | 2.0 | 7.0 | 0.00 | 0.00 | 0.00 | 38 | 1013.0 |
| 20260903172929 | 95 | 120 | 2.0 | 7.0 | 0.00 | 0.00 | 0.00 | 38 | 1013.0 |
| 20260903172838 | 95 | 120 | 2.0 | 7.0 | 0.00 | 0.00 | 0.00 | 39 | 1013.0 |
| 20260903172720 | 95 | 120 | 1.0 | 7.0 | 0.00 | 0.00 | 0.00 | 40 | 1012.9 |
| 20260903172620 | 95 | 120 | 1.0 | 7.0 | 0.00 | 0.00 | 0.00 | 40 | 1012.9 |
| 20260903172522 | 95 | 120 | 1.0 | 7.0 | 0.00 | 0.00 | 0.00 | 40 | 1013.0 |
| 20260903172432 | 95 | 120 | 2.0 | 7.0 | 0.00 | 0.00 | 0.00 | 39 | 1013.0 |
| 20260903172315 | 95 | 120 | 3.0 | 7.0 | 0.00 | 0.00 | 0.00 | 39 | 1012.9 |
| 20260903172222 | 95 | 121 | 3.0 | 7.0 | 0.00 | 0.00 | 0.00 | 39 | 1013.0 |
| 20260903172123 | 95 | 120 | 2.0 | 6.0 | 0.00 | 0.00 | 0.00 | 40 | 1012.9 |
| 20260903172033 | 95 | 120 | 2.0 | 5.0 | 0.00 | 0.00 | 0.00 | 40 | 1012.9 |
| 20260903171934 | 95 | 120 | 1.0 | 5.0 | 0.00 | 0.00 | 0.00 | 39 | 1012.8 |
| 20260903171835 | 95 | 120 | 2.0 | 5.0 | 0.00 | 0.00 | 0.00 | 39 | 1012.9 |
| 20260903171716 | 95 | 120 | 2.0 | 5.0 | 0.00 | 0.00 | 0.00 | 40 | 1012.8 |
| 20260903171630 | 95 | 119 | 2.0 | 5.0 | 0.00 | 0.00 | 0.00 | 40 | 1012.8 |
| 20260903171533 | 95 | 119 | 1.0 | 5.0 | 0.00 | 0.00 | 0.00 | 40 | 1012.9 |
| 20260903171501 | 95 | 119 | 2.0 | 6.0 | 0.00 | 0.00 | 0.00 | 41 | 1012.8 |
| 20260903171321 | 95 | 119 | 2.0 | 6.0 | 0.00 | 0.00 | 0.00 | 40 | 1012.9 |
| 20260903171221 | 95 | 118 | 2.0 | 6.0 | 0.00 | 0.00 | 0.00 | 41 | 1012.8 |
| 20260903171122 | 95 | 118 | 2.0 | 6.0 | 0.00 | 0.00 | 0.00 | 41 | 1012.9 |
| 20260903171037 | 95 | 118 | 1.0 | 6.0 | 0.00 | 0.00 | 0.00 | 41 | 1012.9 |
| 20260903170919 | 95 | 118 | 2.0 | 6.0 | 0.00 | 0.00 | 0.00 | 41 | 1012.8 |
| 20260903170822 | 95 | 118 | 3.0 | 6.0 | 0.00 | 0.00 | 0.00 | 40 | 1012.9 |
| 20260903170722 | 95 | 118 | 3.0 | 6.0 | 0.00 | 0.00 | 0.00 | 40 | 1012.8 |
| 20260903170632 | 95 | 118 | 3.0 | 6.0 | 0.00 | 0.00 | 0.00 | 40 | 1012.8 |
| 20260903170539 | 95 | 112 | 2.0 | 4.0 | 0.00 | 0.00 | 0.00 | 40 | 1012.9 |
| 20260903170423 | 95 | 110 | 1.0 | 4.0 | 0.00 | 0.00 | 0.00 | 41 | 1012.9 |
| 20260903170346 | 95 | 110 | 1.0 | 4.0 | 0.00 | 0.00 | 0.00 | 40 | 1012.9 |
| 20260903170234 | 95 | 110 | 2.0 | 4.0 | 0.00 | 0.00 | 0.00 | 40 | 1012.9 |
| 20260903170134 | 95 | 110 | 2.0 | 4.0 | 0.00 | 0.00 | 0.00 | 40 | 1012.9 |
| 20260903170056 | 96 | 110 | 2.0 | 5.0 | 0.00 | 0.00 | 0.00 | 40 | 1012.9 |
| 20260903165924 | 96 | 110 | 1.0 | 5.0 | 0.00 | 0.00 | 0.00 | 41 | 1012.9 |
| 20260903165825 | 96 | 110 | 1.0 | 5.0 | 0.00 | 0.00 | 0.00 | 41 | 1013.0 |
| 20260903165759 | 97 | 110 | 0.0 | 5.0 | 0.00 | 0.00 | 0.00 | 42 | 1013.0 |
| 20260903165619 | 97 | 110 | 0.0 | 5.0 | 0.00 | 0.00 | 0.00 | 43 | 1013.0 |
| 20260903165521 | 96 | 110 | 0.0 | 5.0 | 0.00 | 0.00 | 0.00 | 43 | 1013.0 |
| 20260903165423 | 96 | 110 | 1.0 | 7.0 | 0.00 | 0.00 | 0.00 | 43 | 1013.0 |
| 20260903165333 | 95 | 110 | 1.0 | 7.0 | 0.00 | 0.00 | 0.00 | 43 | 1013.0 |
| 20260903165235 | 95 | 110 | 2.0 | 7.0 | 0.00 | 0.00 | 0.00 | 43 | 1013.0 |
| 20260903165121 | 95 | 110 | 2.0 | 7.0 | 0.00 | 0.00 | 0.00 | 43 | 1013.1 |
| 20260903165022 | 94 | 110 | 2.0 | 7.0 | 0.00 | 0.00 | 0.00 | 43 | 1013.1 |
| 20260903164932 | 94 | 110 | 2.0 | 7.0 | 0.00 | 0.00 | 0.00 | 43 | 1013.1 |
| 20260903164853 | 94 | 110 | 2.0 | 7.0 | 0.00 | 0.00 | 0.00 | 43 | 1013.1 |
| 20260903164739 | 94 | 110 | 2.0 | 7.0 | 0.00 | 0.00 | 0.00 | 42 | 1013.1 |
| 20260903164622 | 94 | 111 | 2.0 | 11.0 | 0.00 | 0.00 | 0.00 | 44 | 1013.1 |
| 20260903164543 | 94 | 111 | 3.0 | 11.0 | 0.00 | 0.00 | 0.00 | 44 | 1013.1 |
| 20260903164457 | 94 | 112 | 2.0 | 11.0 | 0.00 | 0.00 | 0.00 | 43 | 1013.1 |
| 20260903164323 | 94 | 111 | 1.0 | 11.0 | 0.00 | 0.00 | 0.00 | 43 | 1013.0 |
| 20260903164243 | 94 | 116 | 1.0 | 11.0 | 0.00 | 0.00 | 0.00 | 44 | 1013.1 |
| 20260903164133 | 94 | 116 | 2.0 | 11.0 | 0.00 | 0.00 | 0.00 | 45 | 1013.1 |
| 20260903164055 | 94 | 116 | 2.0 | 11.0 | 0.00 | 0.00 | 0.00 | 44 | 1013.1 |
| 20260903163916 | 94 | 117 | 3.0 | 11.0 | 0.00 | 0.00 | 0.00 | 46 | 1013.0 |
| 20260903163845 | 94 | 117 | 3.0 | 11.0 | 0.00 | 0.00 | 0.00 | 46 | 1013.0 |
| 20260903163627 | 93 | 127 | 0.0 | 7.0 | 0.00 | 0.00 | 0.00 | 45 | 1012.9 |
| 20260903163529 | 93 | 127 | 1.0 | 7.0 | 0.00 | 0.00 | 0.00 | 44 | 1012.9 |
| 20260903163430 | 93 | 127 | 1.0 | 7.0 | 0.00 | 0.00 | 0.00 | 45 | 1012.9 |
| 20260903163337 | 93 | 127 | 2.0 | 7.0 | 0.00 | 0.00 | 0.00 | 44 | 1012.9 |
| 20260903163219 | 93 | 127 | 3.0 | 7.0 | 0.00 | 0.00 | 0.00 | 44 | 1013.0 |
| 20260903163121 | 93 | 127 | 2.0 | 7.0 | 0.00 | 0.00 | 0.00 | 44 | 1013.0 |
| 20260903163024 | 93 | 127 | 2.0 | 7.0 | 0.00 | 0.00 | 0.00 | 45 | 1013.0 |
| 20260903162934 | 93 | 127 | 3.0 | 7.0 | 0.00 | 0.00 | 0.00 | 44 | 1013.0 |
| 20260903162855 | 93 | 127 | 2.0 | 7.0 | 0.00 | 0.00 | 0.00 | 44 | 1013.1 |
| 20260903162716 | 93 | 130 | 1.0 | 6.0 | 0.00 | 0.00 | 0.00 | 45 | 1013.0 |
| 20260903162624 | 93 | 130 | 1.0 | 6.0 | 0.00 | 0.00 | 0.00 | 44 | 1013.0 |
| 20260903162535 | 93 | 130 | 2.0 | 7.0 | 0.00 | 0.00 | 0.00 | 44 | 1013.0 |
| 20260903162419 | 93 | 130 | 3.0 | 7.0 | 0.00 | 0.00 | 0.00 | 45 | 1013.1 |
| 20260903162319 | 93 | 131 | 2.0 | 7.0 | 0.00 | 0.00 | 0.00 | 46 | 1013.0 |
| 20260903162220 | 93 | 131 | 2.0 | 7.0 | 0.00 | 0.00 | 0.00 | 47 | 1013.0 |
| 20260903162149 | 92 | 131 | 2.0 | 7.0 | 0.00 | 0.00 | 0.00 | 46 | 1013.0 |
| 20260903162028 | 92 | 131 | 3.0 | 7.0 | 0.00 | 0.00 | 0.00 | 45 | 1013.0 |
| 20260903161934 | 92 | 131 | 3.0 | 7.0 | 0.00 | 0.00 | 0.00 | 45 | 1013.0 |
| 20260903161816 | 93 | 131 | 3.0 | 7.0 | 0.00 | 0.00 | 0.00 | 44 | 1013.0 |
| 20260903161722 | 93 | 131 | 2.0 | 7.0 | 0.00 | 0.00 | 0.00 | 45 | 1013.0 |
| 20260903161632 | 93 | 132 | 2.0 | 7.0 | 0.00 | 0.00 | 0.00 | 45 | 1013.0 |
| 20260903161533 | 93 | 132 | 2.0 | 7.0 | 0.00 | 0.00 | 0.00 | 46 | 1013.1 |
| 20260903161414 | 93 | 132 | 2.0 | 7.0 | 0.00 | 0.00 | 0.00 | 47 | 1013.1 |
| 20260903161344 | 93 | 132 | 2.0 | 7.0 | 0.00 | 0.00 | 0.00 | 47 | 1013.1 |
| 20260903161223 | 93 | 132 | 3.0 | 7.0 | 0.00 | 0.00 | 0.00 | 46 | 1013.2 |
| 20260903161125 | 93 | 134 | 3.0 | 7.0 | 0.00 | 0.00 | 0.00 | 47 | 1013.2 |
| 20260903161040 | 93 | 135 | 3.0 | 7.0 | 0.00 | 0.00 | 0.00 | 46 | 1013.2 |
| 20260903160940 | 93 | 136 | 3.0 | 7.0 | 0.00 | 0.00 | 0.00 | 45 | 1013.1 |
| 20260903160829 | 93 | 136 | 3.0 | 7.0 | 0.00 | 0.00 | 0.00 | 46 | 1013.1 |
| 20260903160748 | 93 | 136 | 3.0 | 7.0 | 0.00 | 0.00 | 0.00 | 46 | 1013.1 |
| 20260903160636 | 93 | 139 | 1.0 | 7.0 | 0.00 | 0.00 | 0.00 | 46 | 1013.1 |
| 20260903160517 | 93 | 139 | 1.0 | 7.0 | 0.00 | 0.00 | 0.00 | 47 | 1013.1 |
| 20260903160446 | 93 | 139 | 2.0 | 7.0 | 0.00 | 0.00 | 0.00 | 46 | 1013.0 |
| 20260903160330 | 93 | 139 | 2.0 | 7.0 | 0.00 | 0.00 | 0.00 | 48 | 1013.0 |
| 20260903160232 | 92 | 139 | 3.0 | 7.0 | 0.00 | 0.00 | 0.00 | 47 | 1013.1 |
| 20260903160141 | 92 | 140 | 4.0 | 7.0 | 0.00 | 0.00 | 0.00 | 48 | 1013.0 |
| 20260903160032 | 92 | 140 | 4.0 | 7.0 | 0.00 | 0.00 | 0.00 | 47 | 1013.0 |
| 20260903155928 | 91 | 149 | 4.0 | 7.0 | 0.00 | 0.00 | 0.00 | 47 | 1013.0 |
| 20260903155830 | 91 | 149 | 3.0 | 7.0 | 0.00 | 0.00 | 0.00 | 47 | 1013.0 |
| 20260903155740 | 91 | 149 | 3.0 | 7.0 | 0.00 | 0.00 | 0.00 | 47 | 1013.0 |
| 20260903155625 | 91 | 149 | 4.0 | 7.0 | 0.00 | 0.00 | 0.00 | 47 | 1013.1 |
| 20260903155526 | 91 | 150 | 5.0 | 7.0 | 0.00 | 0.00 | 0.00 | 47 | 1013.1 |
| 20260903155454 | 91 | 155 | 4.0 | 7.0 | 0.00 | 0.00 | 0.00 | 47 | 1013.1 |
| 20260903155332 | 91 | 159 | 3.0 | 7.0 | 0.00 | 0.00 | 0.00 | 47 | 1013.1 |
| 20260903155233 | 91 | 162 | 3.0 | 6.0 | 0.00 | 0.00 | 0.00 | 47 | 1013.1 |
| 20260903155142 | 91 | 164 | 2.0 | 6.0 | 0.00 | 0.00 | 0.00 | 47 | 1013.0 |
| 20260903155020 | 91 | 169 | 3.0 | 6.0 | 0.00 | 0.00 | 0.00 | 47 | 1013.1 |
| 20260903154933 | 91 | 170 | 2.0 | 5.0 | 0.00 | 0.00 | 0.00 | 47 | 1013.1 |
| 20260903154903 | 91 | 275 | 1.0 | 4.0 | 0.00 | 0.00 | 0.00 | 48 | 1013.1 |
| 20260903154725 | 91 | 275 | 0.0 | 4.0 | 0.00 | 0.00 | 0.00 | 48 | 1013.1 |
| 20260903154606 | 91 | 275 | 1.0 | 4.0 | 0.00 | 0.00 | 0.00 | 47 | 1013.1 |
| 20260903154424 | 91 | 275 | 2.0 | 4.0 | 0.00 | 0.00 | 0.00 | 47 | 1013.2 |
| 20260903154343 | 91 | 275 | 1.0 | 4.0 | 0.00 | 0.00 | 0.00 | 47 | 1013.2 |
| 20260903154235 | 91 | 275 | 1.0 | 3.0 | 0.00 | 0.00 | 0.00 | 48 | 1013.2 |
| 20260903154117 | 91 | 275 | 1.0 | 3.0 | 0.00 | 0.00 | 0.00 | 50 | 1013.2 |
| 20260903154017 | 91 | 275 | 1.0 | 3.0 | 0.00 | 0.00 | 0.00 | 49 | 1013.2 |
| 20260903153920 | 90 | 275 | 1.0 | 3.0 | 0.00 | 0.00 | 0.00 | 49 | 1013.3 |
| 20260903153830 | 90 | 275 | 1.0 | 3.0 | 0.00 | 0.00 | 0.00 | 50 | 1013.3 |
| 20260903153733 | 90 | 275 | 1.0 | 3.0 | 0.00 | 0.00 | 0.00 | 50 | 1013.2 |
| 20260903153619 | 90 | 275 | 1.0 | 3.0 | 0.00 | 0.00 | 0.00 | 50 | 1013.3 |
| 20260903153547 | 91 | 275 | 1.0 | 3.0 | 0.00 | 0.00 | 0.00 | 51 | 1013.2 |
| 20260903153450 | 90 | 275 | 1.0 | 3.0 | 0.00 | 0.00 | 0.00 | 50 | 1013.2 |
| 20260903153257 | 91 | 275 | 1.0 | 3.0 | 0.00 | 0.00 | 0.00 | 51 | 1013.3 |
| 20260903153155 | 91 | 275 | 1.0 | 3.0 | 0.00 | 0.00 | 0.00 | 52 | 1013.2 |
| 20260903153026 | 90 | 275 | 1.0 | 3.0 | 0.00 | 0.00 | 0.00 | 51 | 1013.3 |
| 20260903152927 | 90 | 275 | 0.0 | 3.0 | 0.00 | 0.00 | 0.00 | 52 | 1013.4 |
| 20260903152830 | 90 | 275 | 1.0 | 3.0 | 0.00 | 0.00 | 0.00 | 51 | 1013.4 |
| 20260903152740 | 90 | 275 | 1.0 | 4.0 | 0.00 | 0.00 | 0.00 | 52 | 1013.4 |
| 20260903152622 | 90 | 275 | 0.0 | 4.0 | 0.00 | 0.00 | 0.00 | 52 | 1013.3 |
| 20260903152544 | 90 | 275 | 0.0 | 4.0 | 0.00 | 0.00 | 0.00 | 52 | 1013.4 |
| 20260903152433 | 90 | 275 | 0.0 | 4.0 | 0.00 | 0.00 | 0.00 | 53 | 1013.4 |
| 20260903152334 | 89 | 275 | 0.0 | 4.0 | 0.00 | 0.00 | 0.00 | 53 | 1013.3 |
| 20260903152306 | 89 | 275 | 0.0 | 4.0 | 0.00 | 0.00 | 0.00 | 53 | 1013.3 |
| 20260903152126 | 89 | 275 | 0.0 | 4.0 | 0.00 | 0.00 | 0.00 | 53 | 1013.3 |
| 20260903152027 | 89 | 275 | 1.0 | 4.0 | 0.00 | 0.00 | 0.00 | 54 | 1013.2 |
| 20260903151957 | 89 | 275 | 1.0 | 4.0 | 0.00 | 0.00 | 0.00 | 55 | 1013.2 |
| 20260903151819 | 88 | 275 | 0.0 | 3.0 | 0.00 | 0.00 | 0.00 | 54 | 1013.2 |
| 20260903151740 | 88 | 275 | 0.0 | 1.0 | 0.00 | 0.00 | 0.00 | 54 | 1013.3 |
| 20260903151627 | 88 | 275 | 0.0 | 1.0 | 0.00 | 0.00 | 0.00 | 54 | 1013.3 |
| 20260903151527 | 88 | 275 | 0.0 | 3.0 | 0.00 | 0.00 | 0.00 | 54 | 1013.3 |
| 20260903151440 | 88 | 275 | 0.0 | 3.0 | 0.00 | 0.00 | 0.00 | 54 | 1013.3 |
| 20260903151331 | 88 | 275 | 0.0 | 3.0 | 0.00 | 0.00 | 0.00 | 55 | 1013.3 |
| 20260903151231 | 88 | 275 | 0.0 | 3.0 | 0.00 | 0.00 | 0.00 | 55 | 1013.4 |
| 20260903151139 | 88 | 275 | 0.0 | 3.0 | 0.00 | 0.00 | 0.00 | 55 | 1013.3 |
| 20260903151022 | 88 | 275 | 0.0 | 3.0 | 0.00 | 0.00 | 0.00 | 55 | 1013.3 |
| 20260903150923 | 88 | 275 | 1.0 | 3.0 | 0.00 | 0.00 | 0.00 | 55 | 1013.3 |
| 20260903150830 | 88 | 275 | 1.0 | 3.0 | 0.00 | 0.00 | 0.00 | 55 | 1013.3 |
| 20260903150739 | 88 | 275 | 1.0 | 3.0 | 0.00 | 0.00 | 0.00 | 54 | 1013.3 |
| 20260903150621 | 88 | 275 | 1.0 | 3.0 | 0.00 | 0.00 | 0.00 | 55 | 1013.3 |
| 20260903150523 | 88 | 275 | 1.0 | 3.0 | 0.00 | 0.00 | 0.00 | 55 | 1013.3 |
| 20260903150454 | 88 | 275 | 1.0 | 3.0 | 0.00 | 0.00 | 0.00 | 55 | 1013.3 |
| 20260903150354 | 88 | 275 | 1.0 | 4.0 | 0.00 | 0.00 | 0.00 | 55 | 1013.2 |
| 20260903150242 | 88 | 275 | 0.0 | 4.0 | 0.00 | 0.00 | 0.00 | 55 | 1013.2 |
| 20260903150123 | 88 | 275 | 0.0 | 4.0 | 0.00 | 0.00 | 0.00 | 55 | 1013.2 |
| 20260903150045 | 88 | 275 | 0.0 | 4.0 | 0.00 | 0.00 | 0.00 | 55 | 1013.2 |
| 20260903145916 | 88 | 275 | 0.0 | 4.0 | 0.00 | 0.00 | 0.00 | 55 | 1013.3 |
| 20260903145839 | 88 | 275 | 0.0 | 4.0 | 0.00 | 0.00 | 0.00 | 55 | 1013.3 |
| 20260903145727 | 88 | 275 | 1.0 | 4.0 | 0.00 | 0.00 | 0.00 | 55 | 1013.3 |
| 20260903145648 | 88 | 275 | 1.0 | 4.0 | 0.00 | 0.00 | 0.00 | 56 | 1013.4 |
| 20260903145538 | 88 | 275 | 1.0 | 4.0 | 0.00 | 0.00 | 0.00 | 55 | 1013.4 |
| 20260903145423 | 88 | 275 | 0.0 | 5.0 | 0.00 | 0.00 | 0.00 | 55 | 1013.4 |
| 20260903145325 | 88 | 275 | 1.0 | 5.0 | 0.00 | 0.00 | 0.00 | 56 | 1013.4 |
| 20260903145225 | 88 | 275 | 2.0 | 5.0 | 0.00 | 0.00 | 0.00 | 56 | 1013.4 |
| 20260903145155 | 87 | 275 | 2.0 | 5.0 | 0.00 | 0.00 | 0.00 | 56 | 1013.4 |
| 20260903145103 | 87 | 275 | 2.0 | 5.0 | 0.00 | 0.00 | 0.00 | 56 | 1013.3 |
| 20260903144923 | 87 | 275 | 1.0 | 5.0 | 0.00 | 0.00 | 0.00 | 56 | 1013.3 |
| 20260903144827 | 87 | 275 | 1.0 | 5.0 | 0.00 | 0.00 | 0.00 | 56 | 1013.3 |
| 20260903144737 | 87 | 275 | 2.0 | 5.0 | 0.00 | 0.00 | 0.00 | 56 | 1013.3 |
| 20260903144619 | 87 | 275 | 2.0 | 5.0 | 0.00 | 0.00 | 0.00 | 56 | 1013.3 |
| 20260903144540 | 87 | 275 | 2.0 | 5.0 | 0.00 | 0.00 | 0.00 | 56 | 1013.2 |
| 20260903144430 | 87 | 275 | 1.0 | 4.0 | 0.00 | 0.00 | 0.00 | 56 | 1013.2 |
| 20260903144330 | 87 | 275 | 1.0 | 4.0 | 0.00 | 0.00 | 0.00 | 56 | 1013.2 |
| 20260903144231 | 87 | 275 | 1.0 | 4.0 | 0.00 | 0.00 | 0.00 | 56 | 1013.1 |
| 20260903144145 | 87 | 275 | 1.0 | 4.0 | 0.00 | 0.00 | 0.00 | 56 | 1013.2 |
| 20260903144025 | 87 | 275 | 1.0 | 4.0 | 0.00 | 0.00 | 0.00 | 56 | 1013.2 |
| 20260903143925 | 87 | 275 | 2.0 | 4.0 | 0.00 | 0.00 | 0.00 | 56 | 1013.2 |
| 20260903143855 | 87 | 275 | 1.0 | 4.0 | 0.00 | 0.00 | 0.00 | 56 | 1013.2 |
| 20260903143733 | 87 | 275 | 0.0 | 4.0 | 0.00 | 0.00 | 0.00 | 56 | 1013.2 |
| 20260903143642 | 87 | 275 | 1.0 | 4.0 | 0.00 | 0.00 | 0.00 | 56 | 1013.2 |
| 20260903143542 | 87 | 275 | 1.0 | 3.0 | 0.00 | 0.00 | 0.00 | 57 | 1013.3 |
| 20260903143451 | 87 | 275 | 0.0 | 1.0 | 0.00 | 0.00 | 0.00 | 57 | 1013.3 |
| 20260903143403 | 87 | 275 | 0.0 | 1.0 | 0.00 | 0.00 | 0.00 | 57 | 1013.3 |
| 20260903143224 | 87 | 275 | 0.0 | 1.0 | 0.00 | 0.00 | 0.00 | 57 | 1013.4 |
| 20260903143155 | 87 | 275 | 0.0 | 1.0 | 0.00 | 0.00 | 0.00 | 57 | 1013.4 |
| 20260903143036 | 87 | 275 | 0.0 | 3.0 | 0.00 | 0.00 | 0.00 | 57 | 1013.2 |
| 20260903142944 | 86 | 275 | 0.0 | 3.0 | 0.00 | 0.00 | 0.00 | 57 | 1013.4 |
| 20260903142844 | 86 | 275 | 0.0 | 4.0 | 0.00 | 0.00 | 0.00 | 57 | 1013.3 |
| 20260903142724 | 86 | 275 | 0.0 | 4.0 | 0.00 | 0.00 | 0.00 | 57 | 1013.3 |
| 20260903142637 | 86 | 275 | 0.0 | 4.0 | 0.00 | 0.00 | 0.00 | 57 | 1013.3 |
| 20260903142520 | 86 | 275 | 0.0 | 4.0 | 0.00 | 0.00 | 0.00 | 57 | 1013.2 |
| 20260903142423 | 86 | 275 | 0.0 | 4.0 | 0.00 | 0.00 | 0.00 | 57 | 1013.2 |
| 20260903142325 | 86 | 275 | 0.0 | 4.0 | 0.00 | 0.00 | 0.00 | 58 | 1013.1 |
| 20260903142236 | 86 | 275 | 1.0 | 4.0 | 0.00 | 0.00 | 0.00 | 57 | 1013.1 |
| 20260903142119 | 86 | 275 | 2.0 | 4.0 | 0.00 | 0.00 | 0.00 | 58 | 1013.2 |
| 20260903142024 | 86 | 275 | 1.0 | 3.0 | 0.00 | 0.00 | 0.00 | 58 | 1013.2 |
| 20260903141925 | 86 | 275 | 0.0 | 3.0 | 0.00 | 0.00 | 0.00 | 58 | 1013.2 |
| 20260903141835 | 86 | 275 | 0.0 | 2.0 | 0.00 | 0.00 | 0.00 | 58 | 1013.2 |
| 20260903141737 | 86 | 275 | 0.0 | 2.0 | 0.00 | 0.00 | 0.00 | 58 | 1013.3 |
| 20260903141645 | 86 | 275 | 1.0 | 2.0 | 0.00 | 0.00 | 0.00 | 58 | 1013.3 |
| 20260903141522 | 86 | 275 | 0.0 | 2.0 | 0.00 | 0.00 | 0.00 | 59 | 1013.2 |
| 20260903141432 | 86 | 275 | 0.0 | 2.0 | 0.00 | 0.00 | 0.00 | 59 | 1013.2 |
| 20260903141319 | 85 | 275 | 0.0 | 2.0 | 0.00 | 0.00 | 0.00 | 59 | 1013.3 |
| 20260903141220 | 85 | 275 | 0.0 | 2.0 | 0.00 | 0.00 | 0.00 | 59 | 1013.3 |
| 20260903141131 | 85 | 275 | 0.0 | 2.0 | 0.00 | 0.00 | 0.00 | 59 | 1013.3 |
| 20260903141033 | 85 | 275 | 0.0 | 2.0 | 0.00 | 0.00 | 0.00 | 60 | 1013.3 |
| 20260903141003 | 85 | 275 | 0.0 | 1.0 | 0.00 | 0.00 | 0.00 | 60 | 1013.2 |
| 20260903140824 | 85 | 275 | 0.0 | 1.0 | 0.00 | 0.00 | 0.00 | 60 | 1013.2 |
| 20260903140731 | 85 | 275 | 0.0 | 1.0 | 0.00 | 0.00 | 0.00 | 60 | 1013.2 |
| 20260903140633 | 85 | 275 | 0.0 | 1.0 | 0.00 | 0.00 | 0.00 | 60 | 1013.2 |
| 20260903140542 | 85 | 275 | 0.0 | 1.0 | 0.00 | 0.00 | 0.00 | 60 | 1013.0 |
| 20260903140423 | 84 | 275 | 0.0 | 1.0 | 0.00 | 0.00 | 0.00 | 60 | 1013.1 |
| 20260903140325 | 84 | 275 | 0.0 | 1.0 | 0.00 | 0.00 | 0.00 | 60 | 1013.1 |
| 20260903140236 | 84 | 275 | 0.0 | 1.0 | 0.00 | 0.00 | 0.00 | 60 | 1013.1 |
| 20260903140116 | 84 | 360 | 0.0 | 1.0 | 0.00 | 0.00 | 0.00 | 61 | 1013.1 |
| 20260903140041 | 84 | 360 | 0.0 | 1.0 | 0.00 | 0.00 | 0.00 | 61 | 1013.1 |
| 20260903135930 | 84 | 274 | 0.0 | 1.0 | 0.00 | 0.00 | 0.00 | 61 | 1013.0 |
| 20260903135832 | 84 | 274 | 0.0 | 1.0 | 0.00 | 0.00 | 0.00 | 61 | 1013.0 |
| 20260903135741 | 84 | 274 | 0.0 | 1.0 | 0.00 | 0.00 | 0.00 | 61 | 1012.9 |
| 20260903135623 | 84 | 274 | 0.0 | 1.0 | 0.00 | 0.00 | 0.00 | 61 | 1012.9 |
| 20260903135524 | 84 | 266 | 0.0 | 1.0 | 0.00 | 0.00 | 0.00 | 61 | 1012.8 |
| 20260903135430 | 84 | 264 | 0.0 | 0.0 | 0.00 | 0.00 | 0.00 | 61 | 1012.8 |
| 20260903135338 | 84 | 264 | 0.0 | 0.0 | 0.00 | 0.00 | 0.00 | 61 | 1012.8 |
| 20260903135220 | 84 | 263 | 0.0 | 0.0 | 0.00 | 0.00 | 0.00 | 61 | 1012.8 |
| 20260903135122 | 84 | 263 | 0.0 | 0.0 | 0.00 | 0.00 | 0.00 | 61 | 1012.9 |
| 20260903135032 | 84 | 263 | 0.0 | 0.0 | 0.00 | 0.00 | 0.00 | 60 | 1012.9 |
| 20260903134954 | 84 | 360 | 0.0 | 0.0 | 0.00 | 0.00 | 0.00 | 60 | 1012.7 |
| 20260903134819 | 84 | 360 | 0.0 | 0.0 | 0.00 | 0.00 | 0.00 | 60 | 1012.8 |
| 20260903134725 | 84 | 264 | 0.0 | 0.0 | 0.00 | 0.00 | 0.00 | 60 | 1012.8 |
| 20260903134636 | 84 | 264 | 0.0 | 0.0 | 0.00 | 0.00 | 0.00 | 60 | 1012.8 |
| 20260903134518 | 84 | 263 | 0.0 | 1.0 | 0.00 | 0.00 | 0.00 | 60 | 1012.8 |
| 20260903134417 | 84 | 360 | 0.0 | 1.0 | 0.00 | 0.00 | 0.00 | 60 | 1012.7 |
| 20260903134319 | 84 | 360 | 0.0 | 4.0 | 0.00 | 0.00 | 0.00 | 60 | 1012.8 |
| 20260903134230 | 84 | 360 | 0.0 | 4.0 | 0.00 | 0.00 | 0.00 | 60 | 1012.8 |
| 20260903134155 | 84 | 360 | 0.0 | 4.0 | 0.00 | 0.00 | 0.00 | 60 | 1012.8 |
| 20260903134042 | 84 | 360 | 0.0 | 4.0 | 0.00 | 0.00 | 0.00 | 60 | 1012.7 |
| 20260903133923 | 84 | 360 | 0.0 | 4.0 | 0.00 | 0.00 | 0.00 | 60 | 1012.7 |
| 20260903133844 | 84 | 360 | 0.0 | 4.0 | 0.00 | 0.00 | 0.00 | 60 | 1012.6 |
| 20260903133733 | 84 | 360 | 0.0 | 4.0 | 0.00 | 0.00 | 0.00 | 60 | 1012.6 |
| 20260903133653 | 84 | 360 | 1.0 | 4.0 | 0.00 | 0.00 | 0.00 | 60 | 1012.7 |
| 20260903133622 | 84 | 360 | 1.0 | 4.0 | 0.00 | 0.00 | 0.00 | 60 | 1012.7 |
| 20260903133508 | 84 | 360 | 0.0 | 4.0 | 0.00 | 0.00 | 0.00 | 60 | 1012.6 |
| 20260903133347 | 84 | 360 | 1.0 | 4.0 | 0.00 | 0.00 | 0.00 | 60 | 1012.6 |
| 20260903133219 | 84 | 263 | 1.0 | 4.0 | 0.00 | 0.00 | 0.00 | 60 | 1012.6 |
| 20260903133121 | 84 | 263 | 1.0 | 4.0 | 0.00 | 0.00 | 0.00 | 60 | 1012.6 |
| 20260903133022 | 84 | 264 | 1.0 | 4.0 | 0.00 | 0.00 | 0.00 | 60 | 1012.6 |
| 20260903132933 | 84 | 264 | 1.0 | 4.0 | 0.00 | 0.00 | 0.00 | 60 | 1012.6 |
| 20260903132815 | 84 | 264 | 1.0 | 4.0 | 0.00 | 0.00 | 0.00 | 60 | 1012.4 |
| 20260903132720 | 84 | 264 | 1.0 | 4.0 | 0.00 | 0.00 | 0.00 | 60 | 1012.4 |
| 20260903132651 | 84 | 264 | 1.0 | 4.0 | 0.00 | 0.00 | 0.00 | 60 | 1012.4 |
| 20260903132531 | 84 | 264 | 1.0 | 4.0 | 0.00 | 0.00 | 0.00 | 60 | 1012.5 |
| 20260903132433 | 84 | 264 | 1.0 | 4.0 | 0.00 | 0.00 | 0.00 | 60 | 1012.5 |
| 20260903132341 | 84 | 266 | 1.0 | 4.0 | 0.00 | 0.00 | 0.00 | 60 | 1012.4 |
| 20260903132223 | 84 | 267 | 1.0 | 4.0 | 0.00 | 0.00 | 0.00 | 60 | 1012.5 |
| 20260903132126 | 84 | 269 | 1.0 | 5.0 | 0.00 | 0.00 | 0.00 | 60 | 1012.5 |
| 20260903132033 | 84 | 274 | 1.0 | 5.0 | 0.00 | 0.00 | 0.00 | 60 | 1012.5 |
| 20260903131942 | 84 | 274 | 1.0 | 5.0 | 0.00 | 0.00 | 0.00 | 60 | 1012.4 |
| 20260903131823 | 84 | 274 | 1.0 | 5.0 | 0.00 | 0.00 | 0.00 | 60 | 1012.5 |
| 20260903131725 | 84 | 274 | 1.0 | 5.0 | 0.00 | 0.00 | 0.00 | 60 | 1012.5 |
| 20260903131635 | 84 | 274 | 1.0 | 5.0 | 0.00 | 0.00 | 0.00 | 60 | 1012.5 |
| 20260903131556 | 84 | 274 | 1.0 | 5.0 | 0.00 | 0.00 | 0.00 | 60 | 1012.5 |
| 20260903131419 | 84 | 274 | 2.0 | 5.0 | 0.00 | 0.00 | 0.00 | 60 | 1012.5 |
| 20260903131326 | 84 | 274 | 1.0 | 5.0 | 0.00 | 0.00 | 0.00 | 60 | 1012.5 |
| 20260903131235 | 84 | 274 | 1.0 | 4.0 | 0.00 | 0.00 | 0.00 | 60 | 1012.5 |
| 20260903131156 | 84 | 274 | 1.0 | 4.0 | 0.00 | 0.00 | 0.00 | 60 | 1012.5 |
| 20260903131043 | 84 | 274 | 1.0 | 4.0 | 0.00 | 0.00 | 0.00 | 60 | 1012.4 |
| 20260903130944 | 84 | 274 | 0.0 | 4.0 | 0.00 | 0.00 | 0.00 | 60 | 1012.4 |
| 20260903130823 | 84 | 274 | 1.0 | 4.0 | 0.00 | 0.00 | 0.00 | 60 | 1012.4 |
| 20260903130733 | 84 | 274 | 2.0 | 4.0 | 0.00 | 0.00 | 0.00 | 60 | 1012.4 |
| 20260903130617 | 84 | 274 | 2.0 | 4.0 | 0.00 | 0.00 | 0.00 | 60 | 1012.5 |
| 20260903130518 | 84 | 274 | 1.0 | 3.0 | 0.00 | 0.00 | 0.00 | 60 | 1012.4 |
| 20260903130427 | 84 | 274 | 1.0 | 3.0 | 0.00 | 0.00 | 0.00 | 60 | 1012.4 |
| 20260903130348 | 84 | 274 | 1.0 | 3.0 | 0.00 | 0.00 | 0.00 | 60 | 1012.4 |
| 20260903130131 | 84 | 274 | 1.0 | 4.0 | 0.00 | 0.00 | 0.00 | 60 | 1012.5 |
| 20260903130030 | 84 | 274 | 1.0 | 4.0 | 0.00 | 0.00 | 0.00 | 60 | 1012.5 |
| 20260903125921 | 84 | 274 | 1.0 | 4.0 | 0.00 | 0.00 | 0.00 | 60 | 1012.4 |
| 20260903125823 | 84 | 274 | 1.0 | 4.0 | 0.00 | 0.00 | 0.00 | 60 | 1012.4 |
| 20260903125733 | 84 | 274 | 1.0 | 4.0 | 0.00 | 0.00 | 0.00 | 60 | 1012.4 |
| 20260903125632 | 84 | 274 | 1.0 | 4.0 | 0.00 | 0.00 | 0.00 | 60 | 1012.4 |
| 20260903125533 | 84 | 274 | 1.0 | 4.0 | 0.00 | 0.00 | 0.00 | 60 | 1012.4 |
| 20260903125442 | 84 | 274 | 2.0 | 4.0 | 0.00 | 0.00 | 0.00 | 60 | 1012.4 |
| 20260903125329 | 84 | 275 | 1.0 | 4.0 | 0.00 | 0.00 | 0.00 | 60 | 1012.4 |
| 20260903125227 | 84 | 274 | 0.0 | 4.0 | 0.00 | 0.00 | 0.00 | 60 | 1012.3 |
| 20260903125127 | 84 | 274 | 0.0 | 4.0 | 0.00 | 0.00 | 0.00 | 60 | 1012.3 |
| 20260903125037 | 84 | 274 | 0.0 | 4.0 | 0.00 | 0.00 | 0.00 | 60 | 1012.3 |
| 20260903124919 | 84 | 274 | 1.0 | 4.0 | 0.00 | 0.00 | 0.00 | 59 | 1012.2 |
| 20260903124821 | 84 | 275 | 1.0 | 4.0 | 0.00 | 0.00 | 0.00 | 59 | 1012.2 |
| 20260903124725 | 84 | 275 | 1.0 | 4.0 | 0.00 | 0.00 | 0.00 | 59 | 1012.2 |
| 20260903124635 | 84 | 275 | 0.0 | 2.0 | 0.00 | 0.00 | 0.00 | 59 | 1012.2 |
| 20260903124536 | 84 | 275 | 0.0 | 2.0 | 0.00 | 0.00 | 0.00 | 59 | 1012.2 |
| 20260903124417 | 84 | 275 | 0.0 | 2.0 | 0.00 | 0.00 | 0.00 | 59 | 1012.1 |
| 20260903124324 | 84 | 275 | 0.0 | 0.0 | 0.00 | 0.00 | 0.00 | 59 | 1012.2 |
| 20260903124254 | 85 | 275 | 0.0 | 0.0 | 0.00 | 0.00 | 0.00 | 59 | 1012.2 |
| 20260903124118 | 85 | 360 | 0.0 | 1.0 | 0.00 | 0.00 | 0.00 | 59 | 1012.2 |
| 20260903124021 | 85 | 360 | 0.0 | 3.0 | 0.00 | 0.00 | 0.00 | 59 | 1012.1 |
| 20260903123921 | 85 | 274 | 0.0 | 3.0 | 0.00 | 0.00 | 0.00 | 59 | 1012.2 |
| 20260903123852 | 85 | 274 | 0.0 | 3.0 | 0.00 | 0.00 | 0.00 | 59 | 1012.2 |
| 20260903123729 | 85 | 274 | 0.0 | 4.0 | 0.00 | 0.00 | 0.00 | 59 | 1012.1 |
| 20260903123638 | 85 | 274 | 0.0 | 4.0 | 0.00 | 0.00 | 0.00 | 58 | 1012.2 |
| 20260903123540 | 85 | 274 | 0.0 | 4.0 | 0.00 | 0.00 | 0.00 | 59 | 1012.2 |
| 20260903123423 | 85 | 275 | 0.0 | 6.0 | 0.00 | 0.00 | 0.00 | 58 | 1012.2 |
| 20260903123333 | 85 | 275 | 1.0 | 6.0 | 0.00 | 0.00 | 0.00 | 58 | 1012.2 |
| 20260903123234 | 85 | 275 | 1.0 | 6.0 | 0.00 | 0.00 | 0.00 | 58 | 1012.1 |
| 20260903123142 | 85 | 275 | 1.0 | 6.0 | 0.00 | 0.00 | 0.00 | 58 | 1012.2 |
| 20260903123042 | 85 | 275 | 1.0 | 6.0 | 0.00 | 0.00 | 0.00 | 58 | 1012.0 |
| 20260903122923 | 85 | 275 | 1.0 | 6.0 | 0.00 | 0.00 | 0.00 | 58 | 1012.0 |
| 20260903122833 | 85 | 275 | 0.0 | 6.0 | 0.00 | 0.00 | 0.00 | 58 | 1012.0 |
| 20260903122719 | 85 | 275 | 2.0 | 6.0 | 0.00 | 0.00 | 0.00 | 58 | 1011.9 |
| 20260903122620 | 85 | 275 | 2.0 | 6.0 | 0.00 | 0.00 | 0.00 | 58 | 1012.0 |
| 20260903122530 | 85 | 276 | 2.0 | 5.0 | 0.00 | 0.00 | 0.00 | 58 | 1012.0 |
| 20260903122433 | 85 | 276 | 1.0 | 5.0 | 0.00 | 0.00 | 0.00 | 58 | 1012.0 |
| 20260903122334 | 85 | 276 | 1.0 | 5.0 | 0.00 | 0.00 | 0.00 | 58 | 1011.9 |
| 20260903122243 | 85 | 276 | 0.0 | 4.0 | 0.00 | 0.00 | 0.00 | 58 | 1012.0 |
| 20260903122127 | 85 | 276 | 0.0 | 5.0 | 0.00 | 0.00 | 0.00 | 58 | 1012.0 |
| 20260903122027 | 85 | 276 | 1.0 | 5.0 | 0.00 | 0.00 | 0.00 | 58 | 1012.0 |
| 20260903121926 | 85 | 276 | 2.0 | 5.0 | 0.00 | 0.00 | 0.00 | 58 | 1012.0 |
| 20260903121835 | 85 | 360 | 1.0 | 5.0 | 0.00 | 0.00 | 0.00 | 58 | 1012.0 |
| 20260903121719 | 85 | 360 | 0.0 | 5.0 | 0.00 | 0.00 | 0.00 | 57 | 1011.9 |
| 20260903121637 | 85 | 360 | 1.0 | 5.0 | 0.00 | 0.00 | 0.00 | 57 | 1011.9 |
| 20260903121522 | 85 | 360 | 1.0 | 5.0 | 0.00 | 0.00 | 0.00 | 57 | 1012.0 |
| 20260903121430 | 85 | 360 | 2.0 | 5.0 | 0.00 | 0.00 | 0.00 | 57 | 1012.0 |
| 20260903121338 | 85 | 360 | 1.0 | 5.0 | 0.00 | 0.00 | 0.00 | 57 | 1011.9 |
| 20260903121219 | 85 | 360 | 0.0 | 4.0 | 0.00 | 0.00 | 0.00 | 57 | 1011.9 |
| 20260903121121 | 85 | 360 | 1.0 | 4.0 | 0.00 | 0.00 | 0.00 | 57 | 1011.8 |
| 20260903121051 | 85 | 360 | 1.0 | 5.0 | 0.00 | 0.00 | 0.00 | 57 | 1011.8 |
| 20260903120931 | 85 | 360 | 1.0 | 5.0 | 0.00 | 0.00 | 0.00 | 57 | 1011.8 |
| 20260903120835 | 85 | 360 | 1.0 | 6.0 | 0.00 | 0.00 | 0.00 | 57 | 1011.8 |
| 20260903120716 | 85 | 360 | 0.0 | 6.0 | 0.00 | 0.00 | 0.00 | 57 | 1011.7 |
| 20260903120646 | 85 | 360 | 0.0 | 6.0 | 0.00 | 0.00 | 0.00 | 57 | 1011.7 |
| 20260903120534 | 85 | 360 | 1.0 | 6.0 | 0.00 | 0.00 | 0.00 | 57 | 1011.7 |
| 20260903120433 | 85 | 360 | 1.0 | 6.0 | 0.00 | 0.00 | 0.00 | 57 | 1011.7 |
| 20260903120316 | 85 | 360 | 1.0 | 6.0 | 0.00 | 0.00 | 0.00 | 57 | 1011.6 |
| 20260903120221 | 85 | 360 | 2.0 | 6.0 | 0.00 | 0.00 | 0.00 | 57 | 1011.6 |
| 20260903120130 | 85 | 360 | 2.0 | 6.0 | 0.00 | 0.00 | 0.00 | 57 | 1011.6 |
| 20260903120041 | 85 | 360 | 2.0 | 6.0 | 0.00 | 0.00 | 0.00 | 57 | 1011.7 |
| 20260903115939 | 85 | 360 | 1.0 | 5.0 | 0.00 | 0.00 | 0.00 | 57 | 1011.7 |
| 20260903115822 | 85 | 360 | 2.0 | 5.0 | 0.00 | 0.00 | 0.00 | 57 | 1011.7 |
| 20260903115725 | 85 | 360 | 1.0 | 4.0 | 0.00 | 0.00 | 0.00 | 57 | 1011.6 |
| 20260903115626 | 85 | 360 | 1.0 | 4.0 | 0.00 | 0.00 | 0.00 | 57 | 1011.6 |
| 20260903115519 | 85 | 360 | 1.0 | 4.0 | 0.00 | 0.00 | 0.00 | 57 | 1011.6 |
| 20260903115442 | 85 | 360 | 2.0 | 4.0 | 0.00 | 0.00 | 0.00 | 57 | 1011.6 |
| 20260903115347 | 85 | 360 | 1.0 | 4.0 | 0.00 | 0.00 | 0.00 | 57 | 1011.6 |
| 20260903115255 | 85 | 360 | 2.0 | 5.0 | 0.00 | 0.00 | 0.00 | 57 | 1011.6 |
| 20260903115036 | 86 | 360 | 1.0 | 6.0 | 0.00 | 0.00 | 0.00 | 57 | 1011.6 |
| 20260903114917 | 86 | 360 | 1.0 | 6.0 | 0.00 | 0.00 | 0.00 | 57 | 1011.6 |
| 20260903114823 | 86 | 360 | 1.0 | 6.0 | 0.00 | 0.00 | 0.00 | 56 | 1011.5 |
| 20260903114725 | 86 | 360 | 1.0 | 6.0 | 0.00 | 0.00 | 0.00 | 56 | 1011.7 |
| 20260903114636 | 86 | 360 | 1.0 | 6.0 | 0.00 | 0.00 | 0.00 | 56 | 1011.7 |
| 20260903114518 | 86 | 360 | 2.0 | 6.0 | 0.00 | 0.00 | 0.00 | 56 | 1011.6 |
| 20260903114440 | 86 | 360 | 2.0 | 6.0 | 0.00 | 0.00 | 0.00 | 56 | 1011.6 |
| 20260903114327 | 86 | 360 | 2.0 | 6.0 | 0.00 | 0.00 | 0.00 | 56 | 1011.6 |
| 20260903114230 | 86 | 360 | 1.0 | 6.0 | 0.00 | 0.00 | 0.00 | 56 | 1011.6 |
| 20260903114115 | 86 | 360 | 2.0 | 6.0 | 0.00 | 0.00 | 0.00 | 56 | 1011.5 |
| 20260903114018 | 86 | 360 | 2.0 | 7.0 | 0.00 | 0.00 | 0.00 | 56 | 1011.4 |
| 20260903113927 | 86 | 360 | 1.0 | 7.0 | 0.00 | 0.00 | 0.00 | 56 | 1011.4 |
| 20260903113829 | 86 | 360 | 2.0 | 7.0 | 0.00 | 0.00 | 0.00 | 56 | 1011.4 |
| 20260903113739 | 86 | 360 | 1.0 | 7.0 | 0.00 | 0.00 | 0.00 | 56 | 1011.6 |
| 20260903113622 | 86 | 360 | 1.0 | 7.0 | 0.00 | 0.00 | 0.00 | 56 | 1011.5 |
| 20260903113523 | 86 | 360 | 2.0 | 7.0 | 0.00 | 0.00 | 0.00 | 56 | 1011.6 |
| 20260903113454 | 86 | 360 | 2.0 | 7.0 | 0.00 | 0.00 | 0.00 | 56 | 1011.6 |
| 20260903113334 | 86 | 360 | 2.0 | 7.0 | 0.00 | 0.00 | 0.00 | 56 | 1011.6 |
| 20260903113303 | 86 | 360 | 3.0 | 7.0 | 0.00 | 0.00 | 0.00 | 56 | 1011.5 |
| 20260903113123 | 86 | 360 | 2.0 | 7.0 | 0.00 | 0.00 | 0.00 | 56 | 1011.5 |
| 20260903113043 | 86 | 360 | 2.0 | 7.0 | 0.00 | 0.00 | 0.00 | 56 | 1011.5 |
| 20260903112932 | 86 | 360 | 2.0 | 7.0 | 0.00 | 0.00 | 0.00 | 56 | 1011.5 |
| 20260903112837 | 86 | 360 | 2.0 | 7.0 | 0.00 | 0.00 | 0.00 | 56 | 1011.7 |
| 20260903112718 | 86 | 360 | 2.0 | 7.0 | 0.00 | 0.00 | 0.00 | 55 | 1011.6 |
| 20260903112647 | 86 | 360 | 2.0 | 5.0 | 0.00 | 0.00 | 0.00 | 56 | 1011.6 |
| 20260903112526 | 86 | 360 | 3.0 | 5.0 | 0.00 | 0.00 | 0.00 | 56 | 1011.6 |
| 20260903112436 | 86 | 360 | 2.0 | 5.0 | 0.00 | 0.00 | 0.00 | 56 | 1011.6 |
| 20260903112318 | 86 | 360 | 2.0 | 5.0 | 0.00 | 0.00 | 0.00 | 56 | 1011.7 |
| 20260903112226 | 86 | 360 | 1.0 | 5.0 | 0.00 | 0.00 | 0.00 | 56 | 1011.6 |
| 20260903112130 | 86 | 360 | 1.0 | 5.0 | 0.00 | 0.00 | 0.00 | 55 | 1011.6 |
| 20260903112038 | 86 | 360 | 2.0 | 5.0 | 0.00 | 0.00 | 0.00 | 55 | 1011.7 |
| 20260903111918 | 86 | 360 | 2.0 | 6.0 | 0.00 | 0.00 | 0.00 | 55 | 1011.6 |
| 20260903111847 | 86 | 360 | 2.0 | 6.0 | 0.00 | 0.00 | 0.00 | 55 | 1011.7 |
| 20260903111726 | 86 | 360 | 1.0 | 6.0 | 0.00 | 0.00 | 0.00 | 55 | 1011.7 |
| 20260903111626 | 86 | 360 | 1.0 | 7.0 | 0.00 | 0.00 | 0.00 | 55 | 1011.6 |
| 20260903111534 | 86 | 360 | 2.0 | 7.0 | 0.00 | 0.00 | 0.00 | 55 | 1011.6 |
| 20260903111419 | 86 | 360 | 3.0 | 7.0 | 0.00 | 0.00 | 0.00 | 55 | 1011.6 |
| 20260903111321 | 86 | 360 | 3.0 | 7.0 | 0.00 | 0.00 | 0.00 | 55 | 1011.6 |
| 20260903111230 | 86 | 360 | 2.0 | 7.0 | 0.00 | 0.00 | 0.00 | 55 | 1011.6 |
| 20260903111132 | 86 | 360 | 2.0 | 7.0 | 0.00 | 0.00 | 0.00 | 55 | 1011.6 |
| 20260903111034 | 86 | 360 | 2.0 | 7.0 | 0.00 | 0.00 | 0.00 | 55 | 1011.6 |
| 20260903110942 | 86 | 360 | 2.0 | 7.0 | 0.00 | 0.00 | 0.00 | 55 | 1011.7 |
| 20260903110822 | 86 | 360 | 2.0 | 7.0 | 0.00 | 0.00 | 0.00 | 55 | 1011.7 |
| 20260903110736 | 86 | 360 | 1.0 | 6.0 | 0.00 | 0.00 | 0.00 | 55 | 1011.7 |
| 20260903110618 | 86 | 360 | 1.0 | 5.0 | 0.00 | 0.00 | 0.00 | 55 | 1011.6 |
| 20260903110520 | 86 | 360 | 1.0 | 4.0 | 0.00 | 0.00 | 0.00 | 55 | 1011.6 |
| 20260903110421 | 86 | 360 | 1.0 | 4.0 | 0.00 | 0.00 | 0.00 | 55 | 1011.6 |
| 20260903110332 | 86 | 360 | 0.0 | 4.0 | 0.00 | 0.00 | 0.00 | 55 | 1011.6 |
| 20260903110218 | 86 | 360 | 0.0 | 4.0 | 0.00 | 0.00 | 0.00 | 55 | 1011.7 |
| 20260903110120 | 86 | 360 | 1.0 | 4.0 | 0.00 | 0.00 | 0.00 | 55 | 1011.7 |
| 20260903110035 | 86 | 360 | 1.0 | 4.0 | 0.00 | 0.00 | 0.00 | 55 | 1011.7 |
| 20260903105951 | 86 | 360 | 1.0 | 4.0 | 0.00 | 0.00 | 0.00 | 54 | 1011.6 |
| 20260903105857 | 86 | 360 | 1.0 | 4.0 | 0.00 | 0.00 | 0.00 | 54 | 1011.6 |
| 20260903105718 | 86 | 360 | 1.0 | 4.0 | 0.00 | 0.00 | 0.00 | 54 | 1011.6 |
| 20260903105619 | 87 | 360 | 1.0 | 4.0 | 0.00 | 0.00 | 0.00 | 54 | 1011.6 |
| 20260903105548 | 87 | 360 | 1.0 | 4.0 | 0.00 | 0.00 | 0.00 | 54 | 1011.7 |
| 20260903105433 | 87 | 360 | 1.0 | 4.0 | 0.00 | 0.00 | 0.00 | 54 | 1011.7 |
| 20260903105341 | 87 | 360 | 0.0 | 2.0 | 0.00 | 0.00 | 0.00 | 54 | 1011.6 |
| 20260903105222 | 87 | 360 | 1.0 | 2.0 | 0.00 | 0.00 | 0.00 | 54 | 1011.7 |
| 20260903105142 | 87 | 360 | 1.0 | 2.0 | 0.00 | 0.00 | 0.00 | 53 | 1011.7 |
| 20260903105029 | 87 | 360 | 1.0 | 2.0 | 0.00 | 0.00 | 0.00 | 53 | 1011.7 |
| 20260903104931 | 87 | 360 | 0.0 | 2.0 | 0.00 | 0.00 | 0.00 | 53 | 1011.7 |
| 20260903104859 | 87 | 360 | 0.0 | 2.0 | 0.00 | 0.00 | 0.00 | 53 | 1011.8 |
| 20260903104723 | 87 | 360 | 0.0 | 2.0 | 0.00 | 0.00 | 0.00 | 53 | 1011.7 |
| 20260903104623 | 87 | 360 | 0.0 | 2.0 | 0.00 | 0.00 | 0.00 | 53 | 1011.7 |
| 20260903104526 | 87 | 360 | 0.0 | 2.0 | 0.00 | 0.00 | 0.00 | 53 | 1011.7 |
| 20260903104456 | 87 | 360 | 0.0 | 2.0 | 0.00 | 0.00 | 0.00 | 53 | 1011.7 |
| 20260903104332 | 87 | 360 | 0.0 | 2.0 | 0.00 | 0.00 | 0.00 | 53 | 1011.7 |
| 20260903104242 | 87 | 360 | 0.0 | 2.0 | 0.00 | 0.00 | 0.00 | 53 | 1011.7 |
| 20260903104124 | 87 | 360 | 0.0 | 1.0 | 0.00 | 0.00 | 0.00 | 53 | 1011.7 |
| 20260903104036 | 87 | 360 | 0.0 | 1.0 | 0.00 | 0.00 | 0.00 | 52 | 1011.7 |
| 20260903103916 | 87 | 360 | 0.0 | 1.0 | 0.00 | 0.00 | 0.00 | 52 | 1011.7 |
| 20260903103817 | 87 | 360 | 0.0 | 1.0 | 0.00 | 0.00 | 0.00 | 52 | 1011.7 |
| 20260903103747 | 87 | 360 | 0.0 | 1.0 | 0.00 | 0.00 | 0.00 | 52 | 1011.6 |
| 20260903103648 | 87 | 360 | 0.0 | 3.0 | 0.00 | 0.00 | 0.00 | 52 | 1011.7 |
| 20260903103535 | 87 | 360 | 0.0 | 3.0 | 0.00 | 0.00 | 0.00 | 52 | 1011.7 |
| 20260903103421 | 87 | 360 | 0.0 | 3.0 | 0.00 | 0.00 | 0.00 | 52 | 1011.7 |
| 20260903103321 | 87 | 360 | 0.0 | 3.0 | 0.00 | 0.00 | 0.00 | 52 | 1011.7 |
| 20260903103232 | 87 | 360 | 0.0 | 5.0 | 0.00 | 0.00 | 0.00 | 51 | 1011.7 |
| 20260903103132 | 87 | 360 | 0.0 | 5.0 | 0.00 | 0.00 | 0.00 | 52 | 1011.7 |
| 20260903103032 | 88 | 360 | 0.0 | 5.0 | 0.00 | 0.00 | 0.00 | 52 | 1011.7 |
| 20260903102941 | 88 | 360 | 1.0 | 5.0 | 0.00 | 0.00 | 0.00 | 52 | 1011.6 |
| 20260903102840 | 88 | 360 | 1.0 | 5.0 | 0.00 | 0.00 | 0.00 | 51 | 1011.7 |
| 20260903102723 | 88 | 360 | 0.0 | 5.0 | 0.00 | 0.00 | 0.00 | 51 | 1011.8 |
| 20260903102654 | 88 | 360 | 0.0 | 5.0 | 0.00 | 0.00 | 0.00 | 51 | 1011.8 |
| 20260903102531 | 88 | 360 | 1.0 | 5.0 | 0.00 | 0.00 | 0.00 | 51 | 1011.7 |
| 20260903102440 | 88 | 360 | 2.0 | 5.0 | 0.00 | 0.00 | 0.00 | 51 | 1011.8 |
| 20260903102320 | 88 | 360 | 2.0 | 5.0 | 0.00 | 0.00 | 0.00 | 51 | 1011.7 |
| 20260903102219 | 88 | 360 | 1.0 | 3.0 | 0.00 | 0.00 | 0.00 | 51 | 1011.7 |
| 20260903102134 | 88 | 360 | 1.0 | 4.0 | 0.00 | 0.00 | 0.00 | 51 | 1011.7 |
| 20260903102035 | 88 | 360 | 1.0 | 5.0 | 0.00 | 0.00 | 0.00 | 51 | 1011.7 |
| 20260903101918 | 88 | 360 | 0.0 | 5.0 | 0.00 | 0.00 | 0.00 | 51 | 1011.7 |
| 20260903101820 | 88 | 360 | 1.0 | 5.0 | 0.00 | 0.00 | 0.00 | 51 | 1011.6 |
| 20260903101730 | 88 | 360 | 1.0 | 5.0 | 0.00 | 0.00 | 0.00 | 51 | 1011.6 |
| 20260903101632 | 88 | 360 | 1.0 | 5.0 | 0.00 | 0.00 | 0.00 | 50 | 1011.7 |
| 20260903101517 | 88 | 360 | 0.0 | 5.0 | 0.00 | 0.00 | 0.00 | 50 | 1011.6 |
| 20260903101418 | 88 | 360 | 1.0 | 5.0 | 0.00 | 0.00 | 0.00 | 50 | 1011.6 |
| 20260903101329 | 88 | 360 | 1.0 | 7.0 | 0.00 | 0.00 | 0.00 | 50 | 1011.6 |
| 20260903101232 | 88 | 360 | 2.0 | 7.0 | 0.00 | 0.00 | 0.00 | 50 | 1011.7 |
| 20260903101132 | 88 | 360 | 1.0 | 7.0 | 0.00 | 0.00 | 0.00 | 50 | 1011.7 |
| 20260903101041 | 88 | 360 | 2.0 | 7.0 | 0.00 | 0.00 | 0.00 | 50 | 1011.6 |
| 20260903100919 | 88 | 360 | 2.0 | 7.0 | 0.00 | 0.00 | 0.00 | 50 | 1011.7 |
| 20260903100832 | 88 | 360 | 2.0 | 7.0 | 0.00 | 0.00 | 0.00 | 50 | 1011.7 |
| 20260903100732 | 88 | 360 | 2.0 | 7.0 | 0.00 | 0.00 | 0.00 | 50 | 1011.6 |
| 20260903100633 | 88 | 360 | 3.0 | 7.0 | 0.00 | 0.00 | 0.00 | 50 | 1011.6 |
| 20260903100542 | 88 | 360 | 2.0 | 8.0 | 0.00 | 0.00 | 0.00 | 50 | 1011.6 |
| 20260903100424 | 88 | 360 | 2.0 | 8.0 | 0.00 | 0.00 | 0.00 | 50 | 1011.7 |
| 20260903100322 | 88 | 360 | 3.0 | 8.0 | 0.00 | 0.00 | 0.00 | 50 | 1011.7 |
| 20260903100237 | 88 | 360 | 3.0 | 10.0 | 0.00 | 0.00 | 0.00 | 50 | 1011.7 |
| 20260903100118 | 88 | 360 | 2.0 | 13.0 | 0.00 | 0.00 | 0.00 | 50 | 1011.7 |
| 20260903100033 | 88 | 360 | 2.0 | 13.0 | 0.00 | 0.00 | 0.00 | 49 | 1011.7 |
| 20260903095929 | 88 | 360 | 3.0 | 13.0 | 0.00 | 0.00 | 0.00 | 49 | 1011.6 |
| 20260903095830 | 88 | 360 | 3.0 | 13.0 | 0.00 | 0.00 | 0.00 | 49 | 1011.6 |
| 20260903095740 | 88 | 360 | 3.0 | 13.0 | 0.00 | 0.00 | 0.00 | 49 | 1011.6 |
| 20260903095625 | 88 | 360 | 3.0 | 13.0 | 0.00 | 0.00 | 0.00 | 49 | 1011.6 |
| 20260903095527 | 88 | 360 | 4.0 | 13.0 | 0.00 | 0.00 | 0.00 | 49 | 1011.6 |
| 20260903095427 | 88 | 360 | 5.0 | 13.0 | 0.00 | 0.00 | 0.00 | 49 | 1011.6 |
| 20260903095357 | 88 | 360 | 6.0 | 13.0 | 0.00 | 0.00 | 0.00 | 49 | 1011.6 |
| 20260903095235 | 88 | 360 | 4.0 | 12.0 | 0.00 | 0.00 | 0.00 | 49 | 1011.6 |
| 20260903095115 | 88 | 360 | 4.0 | 10.0 | 0.00 | 0.00 | 0.00 | 49 | 1011.6 |
| 20260903095030 | 88 | 360 | 4.0 | 10.0 | 0.00 | 0.00 | 0.00 | 49 | 1011.6 |
| 20260903094930 | 88 | 360 | 4.0 | 10.0 | 0.00 | 0.00 | 0.00 | 49 | 1011.5 |
| 20260903094833 | 88 | 360 | 4.0 | 10.0 | 0.00 | 0.00 | 0.00 | 49 | 1011.6 |
| 20260903094741 | 88 | 360 | 5.0 | 10.0 | 0.00 | 0.00 | 0.00 | 49 | 1011.6 |
| 20260903094623 | 88 | 360 | 4.0 | 10.0 | 0.00 | 0.00 | 0.00 | 49 | 1011.6 |
| 20260903094523 | 88 | 360 | 3.0 | 9.0 | 0.00 | 0.00 | 0.00 | 49 | 1011.6 |
| 20260903094429 | 88 | 360 | 2.0 | 9.0 | 0.00 | 0.00 | 0.00 | 49 | 1011.6 |
| 20260903094357 | 88 | 360 | 3.0 | 9.0 | 0.00 | 0.00 | 0.00 | 49 | 1011.6 |
| 20260903094217 | 89 | 360 | 4.0 | 9.0 | 0.00 | 0.00 | 0.00 | 49 | 1011.5 |
| 20260903094117 | 89 | 360 | 2.0 | 9.0 | 0.00 | 0.00 | 0.00 | 48 | 1011.5 |
| 20260903094027 | 89 | 360 | 3.0 | 12.0 | 0.00 | 0.00 | 0.00 | 48 | 1011.6 |
| 20260903093927 | 89 | 360 | 4.0 | 12.0 | 0.00 | 0.00 | 0.00 | 48 | 1011.5 |
| 20260903093830 | 89 | 360 | 4.0 | 12.0 | 0.00 | 0.00 | 0.00 | 48 | 1011.5 |
| 20260903093715 | 89 | 360 | 3.0 | 12.0 | 0.00 | 0.00 | 0.00 | 48 | 1011.5 |
| 20260903093644 | 89 | 360 | 4.0 | 12.0 | 0.00 | 0.00 | 0.00 | 48 | 1011.5 |
| 20260903093522 | 89 | 360 | 5.0 | 12.0 | 0.00 | 0.00 | 0.00 | 48 | 1011.6 |
| 20260903093433 | 89 | 360 | 5.0 | 12.0 | 0.00 | 0.00 | 0.00 | 48 | 1011.6 |
| 20260903093335 | 89 | 360 | 5.0 | 12.0 | 0.00 | 0.00 | 0.00 | 48 | 1011.5 |
| 20260903093243 | 89 | 360 | 6.0 | 12.0 | 0.00 | 0.00 | 0.00 | 48 | 1011.5 |
| 20260903093142 | 89 | 360 | 5.0 | 12.0 | 0.00 | 0.00 | 0.00 | 47 | 1011.6 |
| 20260903093035 | 89 | 360 | 4.0 | 10.0 | 0.00 | 0.00 | 0.00 | 47 | 1011.6 |
| 20260903092937 | 89 | 360 | 4.0 | 10.0 | 0.00 | 0.00 | 0.00 | 47 | 1011.6 |
| 20260903092818 | 89 | 360 | 4.0 | 10.0 | 0.00 | 0.00 | 0.00 | 47 | 1011.6 |
| 20260903092748 | 89 | 360 | 5.0 | 10.0 | 0.00 | 0.00 | 0.00 | 47 | 1011.6 |
| 20260903092718 | 89 | 360 | 6.0 | 10.0 | 0.00 | 0.00 | 0.00 | 47 | 1011.6 |
| 20260903092436 | 89 | 360 | 4.0 | 11.0 | 0.00 | 0.00 | 0.00 | 46 | 1011.4 |
| 20260903092320 | 89 | 360 | 3.0 | 11.0 | 0.00 | 0.00 | 0.00 | 46 | 1011.4 |
| 20260903092222 | 89 | 360 | 3.0 | 11.0 | 0.00 | 0.00 | 0.00 | 45 | 1011.5 |
| 20260903092151 | 89 | 360 | 4.0 | 11.0 | 0.00 | 0.00 | 0.00 | 45 | 1011.5 |
| 20260903092031 | 89 | 360 | 4.0 | 11.0 | 0.00 | 0.00 | 0.00 | 45 | 1011.4 |
| 20260903091931 | 89 | 360 | 3.0 | 11.0 | 0.00 | 0.00 | 0.00 | 45 | 1011.5 |
| 20260903091840 | 89 | 360 | 3.0 | 11.0 | 0.00 | 0.00 | 0.00 | 44 | 1011.5 |
| 20260903091740 | 89 | 360 | 4.0 | 11.0 | 0.00 | 0.00 | 0.00 | 43 | 1011.5 |
| 20260903091649 | 89 | 360 | 4.0 | 10.0 | 0.00 | 0.00 | 0.00 | 43 | 1011.5 |
| 20260903091533 | 89 | 360 | 4.0 | 10.0 | 0.00 | 0.00 | 0.00 | 42 | 1011.6 |
| 20260903091440 | 89 | 360 | 2.0 | 8.0 | 0.00 | 0.00 | 0.00 | 42 | 1011.6 |
| 20260903091322 | 89 | 360 | 3.0 | 7.0 | 0.00 | 0.00 | 0.00 | 42 | 1011.6 |
| 20260903091222 | 89 | 360 | 3.0 | 8.0 | 0.00 | 0.00 | 0.00 | 41 | 1011.6 |
| 20260903091131 | 89 | 360 | 3.0 | 8.0 | 0.00 | 0.00 | 0.00 | 41 | 1011.6 |
| 20260903091034 | 89 | 360 | 3.0 | 8.0 | 0.00 | 0.00 | 0.00 | 41 | 1011.6 |
| 20260903090921 | 89 | 360 | 4.0 | 8.0 | 0.00 | 0.00 | 0.00 | 41 | 1011.5 |
| 20260903090823 | 89 | 360 | 3.0 | 8.0 | 0.00 | 0.00 | 0.00 | 40 | 1011.5 |
| 20260903090733 | 89 | 360 | 4.0 | 8.0 | 0.00 | 0.00 | 0.00 | 40 | 1011.5 |
| 20260903090634 | 89 | 360 | 3.0 | 8.0 | 0.00 | 0.00 | 0.00 | 39 | 1011.5 |
| 20260903090535 | 89 | 360 | 4.0 | 8.0 | 0.00 | 0.00 | 0.00 | 39 | 1011.6 |
| 20260903090443 | 89 | 360 | 4.0 | 8.0 | 0.00 | 0.00 | 0.00 | 39 | 1011.4 |
| 20260903090328 | 89 | 360 | 3.0 | 8.0 | 0.00 | 0.00 | 0.00 | 38 | 1011.4 |
| 20260903090229 | 89 | 360 | 4.0 | 8.0 | 0.00 | 0.00 | 0.00 | 38 | 1011.6 |
| 20260903090138 | 89 | 360 | 4.0 | 8.0 | 0.00 | 0.00 | 0.00 | 38 | 1011.5 |
| 20260903090030 | 89 | 360 | 4.0 | 8.0 | 0.00 | 0.00 | 0.00 | 37 | 1011.5 |
| 20260903085919 | 89 | 360 | 3.0 | 8.0 | 0.00 | 0.00 | 0.00 | 37 | 1011.6 |
| 20260903085829 | 89 | 360 | 2.0 | 8.0 | 0.00 | 0.00 | 0.00 | 37 | 1011.6 |
| 20260903085734 | 89 | 360 | 3.0 | 8.0 | 0.00 | 0.00 | 0.00 | 37 | 1011.6 |
| 20260903085702 | 89 | 360 | 4.0 | 8.0 | 0.00 | 0.00 | 0.00 | 37 | 1011.4 |
| 20260903085521 | 89 | 360 | 4.0 | 8.0 | 0.00 | 0.00 | 0.00 | 36 | 1011.4 |
| 20260903085422 | 89 | 360 | 3.0 | 8.0 | 0.00 | 0.00 | 0.00 | 36 | 1011.4 |
| 20260903085333 | 89 | 360 | 3.0 | 8.0 | 0.00 | 0.00 | 0.00 | 36 | 1011.4 |
| 20260903085216 | 89 | 360 | 3.0 | 8.0 | 0.00 | 0.00 | 0.00 | 36 | 1011.4 |
| 20260903085116 | 89 | 360 | 2.0 | 7.0 | 0.00 | 0.00 | 0.00 | 36 | 1011.4 |
| 20260903085030 | 89 | 360 | 2.0 | 7.0 | 0.00 | 0.00 | 0.00 | 35 | 1011.4 |
| 20260903084933 | 89 | 360 | 3.0 | 7.0 | 0.00 | 0.00 | 0.00 | 35 | 1011.5 |
| 20260903084833 | 89 | 360 | 3.0 | 8.0 | 0.00 | 0.00 | 0.00 | 35 | 1011.4 |
| 20260903084742 | 89 | 360 | 3.0 | 8.0 | 0.00 | 0.00 | 0.00 | 35 | 1011.5 |
| 20260903084625 | 89 | 360 | 3.0 | 8.0 | 0.00 | 0.00 | 0.00 | 35 | 1011.5 |
| 20260903084547 | 89 | 360 | 3.0 | 8.0 | 0.00 | 0.00 | 0.00 | 35 | 1011.5 |
| 20260903084439 | 89 | 360 | 3.0 | 8.0 | 0.00 | 0.00 | 0.00 | 35 | 1011.5 |
| 20260903084322 | 89 | 360 | 3.0 | 8.0 | 0.00 | 0.00 | 0.00 | 35 | 1011.4 |
| 20260903084225 | 89 | 360 | 3.0 | 8.0 | 0.00 | 0.00 | 0.00 | 35 | 1011.5 |
| 20260903084127 | 89 | 360 | 3.0 | 8.0 | 0.00 | 0.00 | 0.00 | 35 | 1011.5 |
| 20260903084034 | 89 | 360 | 3.0 | 8.0 | 0.00 | 0.00 | 0.00 | 35 | 1011.5 |
| 20260903083916 | 89 | 360 | 3.0 | 7.0 | 0.00 | 0.00 | 0.00 | 34 | 1011.6 |
| 20260903083821 | 89 | 360 | 2.0 | 7.0 | 0.00 | 0.00 | 0.00 | 34 | 1011.6 |
| 20260903083731 | 89 | 360 | 3.0 | 7.0 | 0.00 | 0.00 | 0.00 | 34 | 1011.6 |
| 20260903083630 | 89 | 360 | 3.0 | 7.0 | 0.00 | 0.00 | 0.00 | 34 | 1011.7 |
| 20260903083530 | 89 | 360 | 2.0 | 6.0 | 0.00 | 0.00 | 0.00 | 34 | 1011.6 |
| 20260903083440 | 89 | 360 | 3.0 | 6.0 | 0.00 | 0.00 | 0.00 | 34 | 1011.6 |
| 20260903083322 | 89 | 360 | 3.0 | 6.0 | 0.00 | 0.00 | 0.00 | 33 | 1011.7 |
| 20260903083244 | 89 | 360 | 3.0 | 6.0 | 0.00 | 0.00 | 0.00 | 33 | 1011.7 |
| 20260903083138 | 89 | 360 | 3.0 | 6.0 | 0.00 | 0.00 | 0.00 | 33 | 1011.7 |
| 20260903083019 | 89 | 360 | 3.0 | 6.0 | 0.00 | 0.00 | 0.00 | 33 | 1011.6 |
| 20260903082926 | 89 | 360 | 3.0 | 7.0 | 0.00 | 0.00 | 0.00 | 33 | 1011.6 |
| 20260903082826 | 89 | 360 | 3.0 | 7.0 | 0.00 | 0.00 | 0.00 | 32 | 1011.6 |
| 20260903082729 | 89 | 360 | 2.0 | 7.0 | 0.00 | 0.00 | 0.00 | 32 | 1011.6 |
| 20260903082638 | 89 | 360 | 3.0 | 7.0 | 0.00 | 0.00 | 0.00 | 32 | 1011.4 |
| 20260903082524 | 89 | 360 | 3.0 | 7.0 | 0.00 | 0.00 | 0.00 | 32 | 1011.5 |
| 20260903082426 | 89 | 360 | 3.0 | 7.0 | 0.00 | 0.00 | 0.00 | 31 | 1011.5 |
| 20260903082355 | 89 | 360 | 3.0 | 7.0 | 0.00 | 0.00 | 0.00 | 31 | 1011.5 |
| 20260903082215 | 90 | 360 | 3.0 | 7.0 | 0.00 | 0.00 | 0.00 | 31 | 1011.5 |
| 20260903082116 | 89 | 360 | 3.0 | 7.0 | 0.00 | 0.00 | 0.00 | 30 | 1011.4 |
| 20260903082018 | 89 | 360 | 3.0 | 7.0 | 0.00 | 0.00 | 0.00 | 30 | 1011.6 |
| 20260903081933 | 89 | 360 | 3.0 | 7.0 | 0.00 | 0.00 | 0.00 | 30 | 1011.6 |
| 20260903081833 | 89 | 360 | 3.0 | 8.0 | 0.00 | 0.00 | 0.00 | 30 | 1011.5 |
| 20260903081714 | 89 | 360 | 4.0 | 8.0 | 0.00 | 0.00 | 0.00 | 30 | 1011.6 |
| 20260903081645 | 89 | 360 | 4.0 | 8.0 | 0.00 | 0.00 | 0.00 | 30 | 1011.6 |
| 20260903081544 | 89 | 360 | 4.0 | 8.0 | 0.00 | 0.00 | 0.00 | 30 | 1011.6 |
| 20260903081424 | 89 | 360 | 4.0 | 8.0 | 0.00 | 0.00 | 0.00 | 30 | 1011.6 |
| 20260903081317 | 89 | 360 | 4.0 | 8.0 | 0.00 | 0.00 | 0.00 | 30 | 1011.6 |
| 20260903081217 | 89 | 360 | 4.0 | 8.0 | 0.00 | 0.00 | 0.00 | 29 | 1011.6 |
| 20260903081119 | 89 | 360 | 4.0 | 8.0 | 0.00 | 0.00 | 0.00 | 29 | 1011.7 |
| 20260903081030 | 89 | 360 | 4.0 | 7.0 | 0.00 | 0.00 | 0.00 | 29 | 1011.7 |
| 20260903080932 | 89 | 360 | 3.0 | 7.0 | 0.00 | 0.00 | 0.00 | 29 | 1011.6 |
| 20260903080831 | 89 | 360 | 3.0 | 7.0 | 0.00 | 0.00 | 0.00 | 29 | 1011.6 |
| 20260903080739 | 89 | 360 | 2.0 | 6.0 | 0.00 | 0.00 | 0.00 | 29 | 1011.7 |
| 20260903080624 | 89 | 360 | 2.0 | 6.0 | 0.00 | 0.00 | 0.00 | 28 | 1011.6 |
| 20260903080525 | 89 | 360 | 3.0 | 6.0 | 0.00 | 0.00 | 0.00 | 28 | 1011.6 |
| 20260903080427 | 89 | 360 | 2.0 | 5.0 | 0.00 | 0.00 | 0.00 | 28 | 1011.6 |
| 20260903080336 | 89 | 360 | 2.0 | 5.0 | 0.00 | 0.00 | 0.00 | 28 | 1011.6 |
| 20260903080217 | 89 | 360 | 2.0 | 5.0 | 0.00 | 0.00 | 0.00 | 28 | 1011.7 |
| 20260903080121 | 89 | 360 | 2.0 | 5.0 | 0.00 | 0.00 | 0.00 | 28 | 1011.6 |
| 20260903080044 | 89 | 360 | 2.0 | 5.0 | 0.00 | 0.00 | 0.00 | 28 | 1011.6 |
| 20260903075955 | 89 | 360 | 2.0 | 5.0 | 0.00 | 0.00 | 0.00 | 28 | 1011.6 |
| 20260903075842 | 89 | 360 | 2.0 | 4.0 | 0.00 | 0.00 | 0.00 | 28 | 1011.5 |
| 20260903075722 | 89 | 360 | 1.0 | 3.0 | 0.00 | 0.00 | 0.00 | 28 | 1011.6 |
| 20260903075624 | 89 | 360 | 0.0 | 3.0 | 0.00 | 0.00 | 0.00 | 28 | 1011.6 |
| 20260903075526 | 89 | 360 | 0.0 | 3.0 | 0.00 | 0.00 | 0.00 | 28 | 1011.6 |
| 20260903075439 | 89 | 360 | 1.0 | 3.0 | 0.00 | 0.00 | 0.00 | 28 | 1011.6 |
| 20260903075321 | 89 | 360 | 1.0 | 4.0 | 0.00 | 0.00 | 0.00 | 28 | 1011.6 |
| 20260903075222 | 89 | 360 | 1.0 | 5.0 | 0.00 | 0.00 | 0.00 | 28 | 1011.5 |
| 20260903075132 | 89 | 360 | 1.0 | 5.0 | 0.00 | 0.00 | 0.00 | 27 | 1011.5 |
| 20260903075033 | 89 | 360 | 1.0 | 5.0 | 0.00 | 0.00 | 0.00 | 27 | 1011.6 |
| 20260903074916 | 89 | 360 | 1.0 | 5.0 | 0.00 | 0.00 | 0.00 | 27 | 1011.5 |
| 20260903074822 | 89 | 360 | 1.0 | 5.0 | 0.00 | 0.00 | 0.00 | 27 | 1011.5 |
| 20260903074730 | 89 | 360 | 1.0 | 5.0 | 0.00 | 0.00 | 0.00 | 27 | 1011.5 |
| 20260903074632 | 89 | 360 | 1.0 | 5.0 | 0.00 | 0.00 | 0.00 | 27 | 1011.5 |
| 20260903074534 | 89 | 360 | 2.0 | 5.0 | 0.00 | 0.00 | 0.00 | 27 | 1011.5 |
| 20260903074416 | 88 | 360 | 1.0 | 5.0 | 0.00 | 0.00 | 0.00 | 28 | 1011.5 |
| 20260903074323 | 88 | 360 | 0.0 | 0.0 | 0.00 | 0.00 | 0.00 | 28 | 1011.5 |
| 20260903074258 | 88 | 360 | 0.0 | 0.0 | 0.00 | 0.00 | 0.00 | 28 | 1011.5 |
| 20260903074117 | 88 | 360 | 0.0 | 0.0 | 0.00 | 0.00 | 0.00 | 28 | 1011.4 |
| 20260903074037 | 88 | 360 | 0.0 | 0.0 | 0.00 | 0.00 | 0.00 | 29 | 1011.4 |
| 20260903073947 | 88 | 360 | 0.0 | 0.0 | 0.00 | 0.00 | 0.00 | 29 | 1011.4 |
| 20260903073747 | 88 | 360 | 0.0 | 0.0 | 0.00 | 0.00 | 0.00 | 29 | 1011.4 |
| 20260903073636 | 88 | 360 | 0.0 | 0.0 | 0.00 | 0.00 | 0.00 | 29 | 1011.4 |
| 20260903073518 | 88 | 360 | 0.0 | 0.0 | 0.00 | 0.00 | 0.00 | 28 | 1011.4 |
| 20260903073421 | 88 | 360 | 0.0 | 0.0 | 0.00 | 0.00 | 0.00 | 29 | 1011.4 |
| 20260903073332 | 88 | 360 | 0.0 | 0.0 | 0.00 | 0.00 | 0.00 | 29 | 1011.4 |
| 20260903073233 | 88 | 360 | 0.0 | 0.0 | 0.00 | 0.00 | 0.00 | 29 | 1011.5 |
| 20260903073202 | 88 | 360 | 0.0 | 0.0 | 0.00 | 0.00 | 0.00 | 29 | 1011.5 |
| 20260903073023 | 88 | 360 | 0.0 | 0.0 | 0.00 | 0.00 | 0.00 | 29 | 1011.5 |
| 20260903072925 | 88 | 360 | 0.0 | 0.0 | 0.00 | 0.00 | 0.00 | 29 | 1011.6 |
| 20260903072826 | 88 | 360 | 0.0 | 0.0 | 0.00 | 0.00 | 0.00 | 29 | 1011.5 |
| 20260903072719 | 88 | 360 | 0.0 | 0.0 | 0.00 | 0.00 | 0.00 | 29 | 1011.6 |
| 20260903072619 | 88 | 360 | 0.0 | 0.0 | 0.00 | 0.00 | 0.00 | 29 | 1011.5 |
| 20260903072551 | 88 | 360 | 0.0 | 0.0 | 0.00 | 0.00 | 0.00 | 28 | 1011.5 |
| 20260903072429 | 89 | 360 | 0.0 | 0.0 | 0.00 | 0.00 | 0.00 | 28 | 1011.4 |
| 20260903072337 | 89 | 360 | 0.0 | 0.0 | 0.00 | 0.00 | 0.00 | 28 | 1011.4 |
| 20260903072218 | 89 | 360 | 0.0 | 0.0 | 0.00 | 0.00 | 0.00 | 28 | 1011.4 |
| 20260903072125 | 89 | 360 | 0.0 | 0.0 | 0.00 | 0.00 | 0.00 | 28 | 1011.4 |
| 20260903072026 | 89 | 360 | 0.0 | 0.0 | 0.00 | 0.00 | 0.00 | 28 | 1011.4 |
| 20260903071936 | 89 | 360 | 0.0 | 0.0 | 0.00 | 0.00 | 0.00 | 27 | 1011.4 |
| 20260903071818 | 89 | 360 | 0.0 | 0.0 | 0.00 | 0.00 | 0.00 | 26 | 1011.3 |
| 20260903071740 | 90 | 360 | 0.0 | 0.0 | 0.00 | 0.00 | 0.00 | 26 | 1011.4 |
| 20260903071647 | 90 | 360 | 0.0 | 0.0 | 0.00 | 0.00 | 0.00 | 26 | 1011.5 |
| 20260903071529 | 90 | 360 | 0.0 | 0.0 | 0.00 | 0.00 | 0.00 | 26 | 1011.5 |
| 20260903071443 | 90 | 360 | 0.0 | 0.0 | 0.00 | 0.00 | 0.00 | 26 | 1011.3 |
| 20260903071324 | 90 | 360 | 0.0 | 0.0 | 0.00 | 0.00 | 0.00 | 25 | 1011.4 |
| 20260903071246 | 90 | 360 | 0.0 | 0.0 | 0.00 | 0.00 | 0.00 | 25 | 1011.3 |
| 20260903071133 | 90 | 360 | 0.0 | 0.0 | 0.00 | 0.00 | 0.00 | 25 | 1011.3 |
| 20260903071054 | 90 | 360 | 0.0 | 0.0 | 0.00 | 0.00 | 0.00 | 26 | 1011.4 |
| 20260903070941 | 90 | 360 | 0.0 | 0.0 | 0.00 | 0.00 | 0.00 | 25 | 1011.4 |
| 20260903070821 | 91 | 360 | 0.0 | 0.0 | 0.00 | 0.00 | 0.00 | 25 | 1011.4 |
| 20260903070734 | 90 | 360 | 0.0 | 0.0 | 0.00 | 0.00 | 0.00 | 25 | 1011.4 |
| 20260903070634 | 91 | 360 | 0.0 | 0.0 | 0.00 | 0.00 | 0.00 | 26 | 1011.4 |
| 20260903070535 | 91 | 360 | 0.0 | 0.0 | 0.00 | 0.00 | 0.00 | 26 | 1011.4 |
| 20260903070418 | 91 | 360 | 0.0 | 0.0 | 0.00 | 0.00 | 0.00 | 25 | 1011.3 |
| 20260903070326 | 91 | 360 | 0.0 | 0.0 | 0.00 | 0.00 | 0.00 | 25 | 1011.4 |
| 20260903070229 | 91 | 360 | 0.0 | 0.0 | 0.00 | 0.00 | 0.00 | 25 | 1011.4 |
| 20260903070114 | 91 | 360 | 0.0 | 0.0 | 0.00 | 0.00 | 0.00 | 25 | 1011.4 |
| 20260903070035 | 91 | 360 | 0.0 | 2.0 | 0.00 | 0.00 | 0.00 | 25 | 1011.4 |
| 20260903065926 | 91 | 360 | 0.0 | 2.0 | 0.00 | 0.00 | 0.00 | 25 | 1011.2 |
| 20260903065829 | 91 | 360 | 0.0 | 2.0 | 0.00 | 0.00 | 0.00 | 25 | 1011.2 |
| 20260903065739 | 91 | 360 | 0.0 | 3.0 | 0.00 | 0.00 | 0.00 | 25 | 1011.4 |
| 20260903065640 | 91 | 360 | 0.0 | 3.0 | 0.00 | 0.00 | 0.00 | 24 | 1011.4 |
| 20260903065524 | 91 | 360 | 0.0 | 3.0 | 0.00 | 0.00 | 0.00 | 24 | 1011.4 |
| 20260903065454 | 91 | 360 | 0.0 | 3.0 | 0.00 | 0.00 | 0.00 | 25 | 1011.4 |
| 20260903065333 | 91 | 360 | 0.0 | 3.0 | 0.00 | 0.00 | 0.00 | 24 | 1011.4 |
| 20260903065215 | 91 | 360 | 0.0 | 3.0 | 0.00 | 0.00 | 0.00 | 24 | 1011.4 |
| 20260903065125 | 91 | 360 | 0.0 | 3.0 | 0.00 | 0.00 | 0.00 | 24 | 1011.3 |
| 20260903065027 | 91 | 360 | 1.0 | 3.0 | 0.00 | 0.00 | 0.00 | 24 | 1011.3 |
| 20260903064929 | 91 | 360 | 1.0 | 3.0 | 0.00 | 0.00 | 0.00 | 25 | 1011.3 |
| 20260903064842 | 91 | 360 | 1.0 | 3.0 | 0.00 | 0.00 | 0.00 | 25 | 1011.3 |
| 20260903064722 | 91 | 360 | 0.0 | 4.0 | 0.00 | 0.00 | 0.00 | 25 | 1011.3 |
| 20260903064624 | 91 | 360 | 0.0 | 4.0 | 0.00 | 0.00 | 0.00 | 25 | 1011.2 |
| 20260903064526 | 91 | 360 | 1.0 | 4.0 | 0.00 | 0.00 | 0.00 | 26 | 1011.2 |
| 20260903064435 | 92 | 360 | 1.0 | 4.0 | 0.00 | 0.00 | 0.00 | 25 | 1011.2 |
| 20260903064320 | 92 | 360 | 1.0 | 4.0 | 0.00 | 0.00 | 0.00 | 25 | 1011.2 |
| 20260903064221 | 92 | 360 | 1.0 | 4.0 | 0.00 | 0.00 | 0.00 | 25 | 1011.1 |
| 20260903064122 | 92 | 360 | 2.0 | 4.0 | 0.00 | 0.00 | 0.00 | 24 | 1011.1 |
| 20260903064049 | 92 | 360 | 1.0 | 4.0 | 0.00 | 0.00 | 0.00 | 24 | 1011.1 |
| 20260903063937 | 92 | 360 | 1.0 | 4.0 | 0.00 | 0.00 | 0.00 | 25 | 1011.2 |
| 20260903063817 | 92 | 360 | 1.0 | 4.0 | 0.00 | 0.00 | 0.00 | 25 | 1011.1 |
| 20260903063717 | 92 | 360 | 2.0 | 4.0 | 0.00 | 0.00 | 0.00 | 24 | 1011.1 |
| 20260903063629 | 92 | 360 | 1.0 | 4.0 | 0.00 | 0.00 | 0.00 | 25 | 1011.1 |
| 20260903063532 | 92 | 360 | 1.0 | 5.0 | 0.00 | 0.00 | 0.00 | 25 | 1011.1 |
| 20260903063433 | 92 | 360 | 1.0 | 5.0 | 0.00 | 0.00 | 0.00 | 24 | 1011.1 |
| 20260903063340 | 92 | 360 | 1.0 | 5.0 | 0.00 | 0.00 | 0.00 | 24 | 1011.0 |
| 20260903063243 | 92 | 360 | 1.0 | 6.0 | 0.00 | 0.00 | 0.00 | 24 | 1011.0 |
| 20260903063123 | 92 | 360 | 1.0 | 6.0 | 0.00 | 0.00 | 0.00 | 24 | 1010.9 |
| 20260903063033 | 92 | 360 | 2.0 | 6.0 | 0.00 | 0.00 | 0.00 | 24 | 1010.9 |
| 20260903062919 | 92 | 360 | 2.0 | 6.0 | 0.00 | 0.00 | 0.00 | 24 | 1011.0 |
| 20260903062820 | 92 | 360 | 2.0 | 6.0 | 0.00 | 0.00 | 0.00 | 24 | 1011.0 |
| 20260903062721 | 92 | 360 | 2.0 | 6.0 | 0.00 | 0.00 | 0.00 | 24 | 1011.0 |
| 20260903062629 | 92 | 360 | 1.0 | 6.0 | 0.00 | 0.00 | 0.00 | 24 | 1011.0 |
| 20260903062532 | 92 | 360 | 2.0 | 6.0 | 0.00 | 0.00 | 0.00 | 24 | 1011.0 |
| 20260903062417 | 92 | 360 | 2.0 | 6.0 | 0.00 | 0.00 | 0.00 | 24 | 1011.0 |
| 20260903062324 | 92 | 360 | 2.0 | 5.0 | 0.00 | 0.00 | 0.00 | 25 | 1011.1 |
| 20260903062223 | 92 | 360 | 2.0 | 5.0 | 0.00 | 0.00 | 0.00 | 24 | 1011.1 |
| 20260903062134 | 92 | 360 | 2.0 | 5.0 | 0.00 | 0.00 | 0.00 | 25 | 1011.1 |
| 20260903062036 | 92 | 360 | 2.0 | 5.0 | 0.00 | 0.00 | 0.00 | 25 | 1011.1 |
| 20260903061917 | 92 | 360 | 2.0 | 5.0 | 0.00 | 0.00 | 0.00 | 25 | 1011.1 |
| 20260903061819 | 92 | 360 | 2.0 | 5.0 | 0.00 | 0.00 | 0.00 | 25 | 1011.0 |
| 20260903061733 | 92 | 360 | 2.0 | 5.0 | 0.00 | 0.00 | 0.00 | 25 | 1011.0 |
| 20260903061635 | 92 | 360 | 2.0 | 5.0 | 0.00 | 0.00 | 0.00 | 25 | 1011.0 |
| 20260903061605 | 92 | 360 | 2.0 | 5.0 | 0.00 | 0.00 | 0.00 | 25 | 1011.1 |
| 20260903061424 | 92 | 360 | 2.0 | 5.0 | 0.00 | 0.00 | 0.00 | 26 | 1011.1 |
| 20260903061324 | 92 | 360 | 1.0 | 5.0 | 0.00 | 0.00 | 0.00 | 26 | 1011.1 |
| 20260903061225 | 92 | 360 | 1.0 | 5.0 | 0.00 | 0.00 | 0.00 | 26 | 1011.1 |
| 20260903061139 | 92 | 360 | 2.0 | 6.0 | 0.00 | 0.00 | 0.00 | 26 | 1011.1 |
| 20260903061021 | 92 | 360 | 2.0 | 6.0 | 0.00 | 0.00 | 0.00 | 26 | 1011.2 |
| 20260903060924 | 92 | 360 | 2.0 | 6.0 | 0.00 | 0.00 | 0.00 | 26 | 1011.2 |
| 20260903060825 | 91 | 360 | 1.0 | 6.0 | 0.00 | 0.00 | 0.00 | 26 | 1011.2 |
| 20260903060735 | 92 | 360 | 2.0 | 6.0 | 0.00 | 0.00 | 0.00 | 27 | 1011.2 |
| 20260903060618 | 92 | 360 | 3.0 | 6.0 | 0.00 | 0.00 | 0.00 | 27 | 1011.1 |
| 20260903060523 | 91 | 360 | 2.0 | 6.0 | 0.00 | 0.00 | 0.00 | 27 | 1011.2 |
| 20260903060423 | 92 | 360 | 2.0 | 6.0 | 0.00 | 0.00 | 0.00 | 27 | 1011.1 |
| 20260903060334 | 92 | 360 | 2.0 | 6.0 | 0.00 | 0.00 | 0.00 | 27 | 1011.1 |
| 20260903060235 | 91 | 360 | 1.0 | 5.0 | 0.00 | 0.00 | 0.00 | 27 | 1011.1 |
| 20260903060136 | 92 | 360 | 2.0 | 5.0 | 0.00 | 0.00 | 0.00 | 27 | 1011.1 |
| 20260903060034 | 92 | 360 | 2.0 | 5.0 | 0.00 | 0.00 | 0.00 | 28 | 1011.0 |
| 20260903055927 | 92 | 360 | 3.0 | 5.0 | 0.00 | 0.00 | 0.00 | 28 | 1011.0 |
| 20260903055831 | 92 | 360 | 2.0 | 5.0 | 0.00 | 0.00 | 0.00 | 28 | 1011.0 |
| 20260903055739 | 91 | 360 | 2.0 | 5.0 | 0.00 | 0.00 | 0.00 | 28 | 1011.0 |
| 20260903055619 | 92 | 360 | 2.0 | 5.0 | 0.00 | 0.00 | 0.00 | 28 | 1010.9 |
| 20260903055521 | 91 | 360 | 2.0 | 5.0 | 0.00 | 0.00 | 0.00 | 28 | 1010.9 |
| 20260903055427 | 92 | 360 | 2.0 | 5.0 | 0.00 | 0.00 | 0.00 | 28 | 1011.1 |
| 20260903055333 | 92 | 360 | 2.0 | 5.0 | 0.00 | 0.00 | 0.00 | 28 | 1011.1 |
| 20260903055242 | 92 | 360 | 1.0 | 5.0 | 0.00 | 0.00 | 0.00 | 28 | 1011.0 |
| 20260903055125 | 92 | 360 | 1.0 | 5.0 | 0.00 | 0.00 | 0.00 | 28 | 1011.1 |
| 20260903055026 | 92 | 360 | 2.0 | 5.0 | 0.00 | 0.00 | 0.00 | 28 | 1011.1 |
| 20260903054956 | 92 | 360 | 2.0 | 5.0 | 0.00 | 0.00 | 0.00 | 28 | 1011.1 |
| 20260903054738 | 92 | 360 | 2.0 | 5.0 | 0.00 | 0.00 | 0.00 | 28 | 1011.1 |
| 20260903054624 | 92 | 360 | 3.0 | 5.0 | 0.00 | 0.00 | 0.00 | 28 | 1011.0 |
| 20260903054524 | 92 | 360 | 3.0 | 5.0 | 0.00 | 0.00 | 0.00 | 28 | 1011.1 |
| 20260903054425 | 92 | 360 | 2.0 | 5.0 | 0.00 | 0.00 | 0.00 | 28 | 1011.1 |
| 20260903054335 | 92 | 360 | 2.0 | 5.0 | 0.00 | 0.00 | 0.00 | 29 | 1011.1 |
| 20260903054303 | 92 | 360 | 2.0 | 5.0 | 0.00 | 0.00 | 0.00 | 29 | 1011.1 |
| 20260903054124 | 92 | 360 | 2.0 | 5.0 | 0.00 | 0.00 | 0.00 | 28 | 1011.2 |
| 20260903054025 | 92 | 360 | 2.0 | 5.0 | 0.00 | 0.00 | 0.00 | 29 | 1011.2 |
| 20260903053932 | 92 | 360 | 2.0 | 5.0 | 0.00 | 0.00 | 0.00 | 29 | 1011.2 |
| 20260903053840 | 92 | 360 | 2.0 | 5.0 | 0.00 | 0.00 | 0.00 | 28 | 1011.2 |
| 20260903053721 | 92 | 360 | 2.0 | 5.0 | 0.00 | 0.00 | 0.00 | 29 | 1011.1 |
| 20260903053643 | 92 | 360 | 2.0 | 5.0 | 0.00 | 0.00 | 0.00 | 29 | 1011.1 |
| 20260903053532 | 92 | 360 | 3.0 | 5.0 | 0.00 | 0.00 | 0.00 | 29 | 1011.1 |
| 20260903053432 | 92 | 360 | 2.0 | 5.0 | 0.00 | 0.00 | 0.00 | 29 | 1011.2 |
| 20260903053317 | 92 | 360 | 2.0 | 4.0 | 0.00 | 0.00 | 0.00 | 29 | 1011.2 |
| 20260903053217 | 92 | 360 | 1.0 | 4.0 | 0.00 | 0.00 | 0.00 | 29 | 1011.2 |
| 20260903053144 | 92 | 360 | 1.0 | 5.0 | 0.00 | 0.00 | 0.00 | 29 | 1011.2 |
| 20260903053034 | 92 | 360 | 1.0 | 5.0 | 0.00 | 0.00 | 0.00 | 29 | 1011.2 |
| 20260903052934 | 92 | 360 | 2.0 | 5.0 | 0.00 | 0.00 | 0.00 | 30 | 1011.2 |
| 20260903052815 | 92 | 360 | 2.0 | 5.0 | 0.00 | 0.00 | 0.00 | 30 | 1011.1 |
| 20260903052722 | 93 | 360 | 2.0 | 5.0 | 0.00 | 0.00 | 0.00 | 30 | 1011.1 |
| 20260903052633 | 93 | 360 | 2.0 | 5.0 | 0.00 | 0.00 | 0.00 | 30 | 1011.1 |
| 20260903052533 | 93 | 360 | 2.0 | 5.0 | 0.00 | 0.00 | 0.00 | 31 | 1011.1 |
| 20260903052441 | 93 | 360 | 2.0 | 5.0 | 0.00 | 0.00 | 0.00 | 31 | 1011.1 |
| 20260903052324 | 93 | 360 | 2.0 | 5.0 | 0.00 | 0.00 | 0.00 | 31 | 1011.1 |
| 20260903052223 | 93 | 360 | 2.0 | 5.0 | 0.00 | 0.00 | 0.00 | 31 | 1011.2 |
| 20260903052124 | 93 | 360 | 2.0 | 5.0 | 0.00 | 0.00 | 0.00 | 31 | 1011.1 |
| 20260903052039 | 93 | 360 | 1.0 | 6.0 | 0.00 | 0.00 | 0.00 | 31 | 1011.1 |
| 20260903051921 | 93 | 360 | 2.0 | 6.0 | 0.00 | 0.00 | 0.00 | 31 | 1011.1 |
| 20260903051842 | 93 | 360 | 2.0 | 6.0 | 0.00 | 0.00 | 0.00 | 31 | 1011.2 |
| 20260903051727 | 93 | 360 | 2.0 | 6.0 | 0.00 | 0.00 | 0.00 | 31 | 1011.1 |
| 20260903051627 | 93 | 360 | 2.0 | 6.0 | 0.00 | 0.00 | 0.00 | 32 | 1011.1 |
| 20260903051538 | 93 | 360 | 2.0 | 7.0 | 0.00 | 0.00 | 0.00 | 32 | 1011.1 |
| 20260903051423 | 93 | 360 | 2.0 | 7.0 | 0.00 | 0.00 | 0.00 | 32 | 1011.1 |
| 20260903051325 | 93 | 360 | 2.0 | 7.0 | 0.00 | 0.00 | 0.00 | 32 | 1011.0 |
| 20260903051234 | 93 | 360 | 2.0 | 7.0 | 0.00 | 0.00 | 0.00 | 32 | 1011.0 |
| 20260903051133 | 93 | 360 | 3.0 | 7.0 | 0.00 | 0.00 | 0.00 | 32 | 1011.1 |
| 20260903051041 | 93 | 360 | 3.0 | 7.0 | 0.00 | 0.00 | 0.00 | 32 | 1011.1 |
| 20260903050924 | 93 | 360 | 2.0 | 7.0 | 0.00 | 0.00 | 0.00 | 32 | 1011.1 |
| 20260903050827 | 93 | 360 | 2.0 | 7.0 | 0.00 | 0.00 | 0.00 | 32 | 1011.0 |
| 20260903050732 | 93 | 360 | 2.0 | 7.0 | 0.00 | 0.00 | 0.00 | 31 | 1011.0 |
| 20260903050639 | 93 | 360 | 3.0 | 5.0 | 0.00 | 0.00 | 0.00 | 31 | 1011.0 |
| 20260903050519 | 93 | 360 | 2.0 | 5.0 | 0.00 | 0.00 | 0.00 | 32 | 1011.1 |
| 20260903050422 | 93 | 360 | 2.0 | 5.0 | 0.00 | 0.00 | 0.00 | 32 | 1011.1 |
| 20260903050323 | 93 | 360 | 2.0 | 6.0 | 0.00 | 0.00 | 0.00 | 32 | 1011.0 |
| 20260903050254 | 93 | 360 | 1.0 | 6.0 | 0.00 | 0.00 | 0.00 | 33 | 1011.0 |
| 20260903050125 | 93 | 360 | 1.0 | 6.0 | 0.00 | 0.00 | 0.00 | 33 | 1011.1 |
| 20260903050027 | 93 | 360 | 1.0 | 6.0 | 0.00 | 0.00 | 0.00 | 33 | 1011.1 |
| 20260903045936 | 93 | 360 | 1.0 | 6.0 | 0.00 | 0.00 | 0.00 | 34 | 1011.1 |
| 20260903045825 | 93 | 360 | 2.0 | 6.0 | 0.00 | 0.00 | 0.00 | 34 | 1011.0 |
| 20260903045745 | 93 | 360 | 3.0 | 6.0 | 0.00 | 0.00 | 0.00 | 34 | 1011.2 |
| 20260903045635 | 93 | 360 | 3.0 | 6.0 | 0.00 | 0.00 | 0.00 | 34 | 1011.2 |
| 20260903045557 | 93 | 360 | 3.0 | 6.0 | 0.00 | 0.00 | 0.00 | 34 | 1011.2 |
| 20260903045444 | 93 | 360 | 2.0 | 5.0 | 0.00 | 0.00 | 0.00 | 34 | 1011.2 |
| 20260903045329 | 93 | 360 | 2.0 | 5.0 | 0.00 | 0.00 | 0.00 | 35 | 1011.1 |
| 20260903045238 | 94 | 360 | 2.0 | 5.0 | 0.00 | 0.00 | 0.00 | 34 | 1011.1 |
| 20260903045138 | 94 | 360 | 2.0 | 5.0 | 0.00 | 0.00 | 0.00 | 35 | 1011.1 |
| 20260903045044 | 94 | 360 | 2.0 | 5.0 | 0.00 | 0.00 | 0.00 | 35 | 1011.1 |
| 20260903045006 | 94 | 360 | 2.0 | 5.0 | 0.00 | 0.00 | 0.00 | 35 | 1011.1 |
| 20260903044830 | 94 | 360 | 2.0 | 5.0 | 0.00 | 0.00 | 0.00 | 35 | 1011.1 |
| 20260903044731 | 94 | 360 | 2.0 | 7.0 | 0.00 | 0.00 | 0.00 | 35 | 1011.2 |
| 20260903044615 | 94 | 360 | 2.0 | 7.0 | 0.00 | 0.00 | 0.00 | 35 | 1011.1 |
| 20260903044515 | 94 | 360 | 2.0 | 7.0 | 0.00 | 0.00 | 0.00 | 35 | 1011.1 |
| 20260903044444 | 94 | 360 | 2.0 | 7.0 | 0.00 | 0.00 | 0.00 | 35 | 1011.0 |
| 20260903044322 | 94 | 360 | 2.0 | 7.0 | 0.00 | 0.00 | 0.00 | 35 | 1011.0 |
| 20260903044232 | 94 | 360 | 2.0 | 7.0 | 0.00 | 0.00 | 0.00 | 35 | 1011.0 |
| 20260903044132 | 94 | 360 | 2.0 | 7.0 | 0.00 | 0.00 | 0.00 | 35 | 1011.1 |
| 20260903044016 | 94 | 360 | 2.0 | 7.0 | 0.00 | 0.00 | 0.00 | 35 | 1011.0 |
| 20260903043925 | 94 | 360 | 2.0 | 7.0 | 0.00 | 0.00 | 0.00 | 36 | 1011.0 |
| 20260903043848 | 94 | 360 | 3.0 | 7.0 | 0.00 | 0.00 | 0.00 | 35 | 1011.1 |
| 20260903043736 | 94 | 360 | 3.0 | 7.0 | 0.00 | 0.00 | 0.00 | 36 | 1011.1 |
| 20260903043617 | 94 | 360 | 2.0 | 7.0 | 0.00 | 0.00 | 0.00 | 36 | 1011.1 |
| 20260903043521 | 94 | 360 | 2.0 | 7.0 | 0.00 | 0.00 | 0.00 | 36 | 1011.0 |
| 20260903043421 | 94 | 360 | 3.0 | 7.0 | 0.00 | 0.00 | 0.00 | 36 | 1011.1 |
| 20260903043336 | 94 | 360 | 3.0 | 7.0 | 0.00 | 0.00 | 0.00 | 36 | 1011.1 |
| 20260903043218 | 94 | 360 | 3.0 | 6.0 | 0.00 | 0.00 | 0.00 | 37 | 1011.1 |
| 20260903043121 | 94 | 360 | 3.0 | 6.0 | 0.00 | 0.00 | 0.00 | 37 | 1011.1 |
| 20260903043023 | 94 | 360 | 3.0 | 6.0 | 0.00 | 0.00 | 0.00 | 37 | 1011.1 |
| 20260903042951 | 95 | 360 | 2.0 | 6.0 | 0.00 | 0.00 | 0.00 | 37 | 1011.1 |
| 20260903042859 | 94 | 360 | 1.0 | 5.0 | 0.00 | 0.00 | 0.00 | 37 | 1011.1 |
| 20260903042723 | 95 | 360 | 2.0 | 5.0 | 0.00 | 0.00 | 0.00 | 37 | 1011.1 |
| 20260903042625 | 95 | 360 | 2.0 | 5.0 | 0.00 | 0.00 | 0.00 | 38 | 1011.1 |
| 20260903042525 | 95 | 360 | 2.0 | 5.0 | 0.00 | 0.00 | 0.00 | 38 | 1011.1 |
| 20260903042455 | 95 | 240 | 1.0 | 5.0 | 0.00 | 0.00 | 0.00 | 39 | 1011.1 |
| 20260903042316 | 95 | 240 | 1.0 | 5.0 | 0.00 | 0.00 | 0.00 | 39 | 1011.1 |
| 20260903042244 | 95 | 240 | 1.0 | 5.0 | 0.00 | 0.00 | 0.00 | 38 | 1011.1 |
| 20260903042124 | 95 | 240 | 2.0 | 8.0 | 0.00 | 0.00 | 0.00 | 39 | 1011.1 |
| 20260903042039 | 95 | 240 | 3.0 | 8.0 | 0.00 | 0.00 | 0.00 | 39 | 1011.1 |
| 20260903041938 | 95 | 240 | 2.0 | 8.0 | 0.00 | 0.00 | 0.00 | 39 | 1011.1 |
| 20260903041847 | 95 | 240 | 1.0 | 8.0 | 0.00 | 0.00 | 0.00 | 39 | 1011.2 |
| 20260903041830 | 95 | 240 | 1.0 | 8.0 | 0.00 | 0.00 | 0.00 | 38 | 1011.2 |
| 20260903041618 | 95 | 240 | 1.0 | 8.0 | 0.00 | 0.00 | 0.00 | 38 | 1011.0 |
| 20260903041520 | 95 | 240 | 2.0 | 8.0 | 0.00 | 0.00 | 0.00 | 38 | 1011.1 |
| 20260903041432 | 95 | 240 | 3.0 | 8.0 | 0.00 | 0.00 | 0.00 | 38 | 1011.1 |
| 20260903041315 | 95 | 238 | 3.0 | 6.0 | 0.00 | 0.00 | 0.00 | 38 | 1011.0 |
| 20260903041218 | 95 | 237 | 2.0 | 6.0 | 0.00 | 0.00 | 0.00 | 38 | 1011.0 |
| 20260903041120 | 95 | 237 | 2.0 | 6.0 | 0.00 | 0.00 | 0.00 | 38 | 1011.1 |
| 20260903041029 | 95 | 237 | 2.0 | 6.0 | 0.00 | 0.00 | 0.00 | 38 | 1011.0 |
| 20260903040930 | 95 | 237 | 2.0 | 6.0 | 0.00 | 0.00 | 0.00 | 38 | 1011.0 |
| 20260903040815 | 95 | 238 | 3.0 | 6.0 | 0.00 | 0.00 | 0.00 | 39 | 1010.9 |
| 20260903040717 | 96 | 238 | 2.0 | 6.0 | 0.00 | 0.00 | 0.00 | 39 | 1010.9 |
| 20260903040627 | 96 | 238 | 1.0 | 5.0 | 0.00 | 0.00 | 0.00 | 38 | 1010.8 |
| 20260903040527 | 96 | 238 | 1.0 | 5.0 | 0.00 | 0.00 | 0.00 | 38 | 1010.8 |
| 20260903040429 | 96 | 238 | 1.0 | 6.0 | 0.00 | 0.00 | 0.00 | 38 | 1010.8 |
| 20260903040339 | 96 | 238 | 2.0 | 6.0 | 0.00 | 0.00 | 0.00 | 38 | 1010.8 |
| 20260903040225 | 96 | 238 | 2.0 | 6.0 | 0.00 | 0.00 | 0.00 | 38 | 1010.8 |
| 20260903040133 | 96 | 238 | 1.0 | 6.0 | 0.00 | 0.00 | 0.00 | 38 | 1010.8 |
| 20260903040046 | 96 | 238 | 1.0 | 6.0 | 0.00 | 0.00 | 0.00 | 38 | 1010.7 |
| 20260903035934 | 96 | 238 | 1.0 | 6.0 | 0.00 | 0.00 | 0.00 | 38 | 1010.7 |
| 20260903035815 | 96 | 238 | 1.0 | 6.0 | 0.00 | 0.00 | 0.00 | 38 | 1010.7 |
| 20260903035725 | 96 | 238 | 2.0 | 6.0 | 0.00 | 0.00 | 0.00 | 38 | 1010.7 |
| 20260903035630 | 96 | 238 | 1.0 | 6.0 | 0.00 | 0.00 | 0.00 | 38 | 1010.7 |
| 20260903035517 | 96 | 238 | 0.0 | 3.0 | 0.00 | 0.00 | 0.00 | 38 | 1010.6 |
| 20260903035417 | 96 | 238 | 1.0 | 3.0 | 0.00 | 0.00 | 0.00 | 38 | 1010.6 |
| 20260903035318 | 96 | 238 | 1.0 | 3.0 | 0.00 | 0.00 | 0.00 | 38 | 1010.7 |
| 20260903035227 | 96 | 238 | 0.0 | 3.0 | 0.00 | 0.00 | 0.00 | 38 | 1010.7 |
| 20260903035127 | 96 | 238 | 1.0 | 3.0 | 0.00 | 0.00 | 0.00 | 38 | 1010.6 |
| 20260903035034 | 96 | 238 | 1.0 | 3.0 | 0.00 | 0.00 | 0.00 | 38 | 1010.6 |
| 20260903034920 | 96 | 238 | 1.0 | 4.0 | 0.00 | 0.00 | 0.00 | 38 | 1010.6 |
| 20260903034821 | 96 | 238 | 1.0 | 4.0 | 0.00 | 0.00 | 0.00 | 38 | 1010.7 |
| 20260903034750 | 96 | 238 | 1.0 | 4.0 | 0.00 | 0.00 | 0.00 | 38 | 1010.7 |
| 20260903034647 | 96 | 238 | 1.0 | 4.0 | 0.00 | 0.00 | 0.00 | 38 | 1010.7 |
| 20260903034537 | 96 | 238 | 1.0 | 5.0 | 0.00 | 0.00 | 0.00 | 38 | 1010.7 |
| 20260903034417 | 96 | 360 | 1.0 | 5.0 | 0.00 | 0.00 | 0.00 | 38 | 1010.6 |
| 20260903034318 | 96 | 236 | 1.0 | 5.0 | 0.00 | 0.00 | 0.00 | 38 | 1010.6 |
| 20260903034233 | 96 | 360 | 1.0 | 5.0 | 0.00 | 0.00 | 0.00 | 37 | 1010.6 |
| 20260903034133 | 96 | 360 | 1.0 | 5.0 | 0.00 | 0.00 | 0.00 | 37 | 1010.6 |
| 20260903034015 | 96 | 360 | 1.0 | 5.0 | 0.00 | 0.00 | 0.00 | 37 | 1010.6 |
| 20260903033924 | 96 | 360 | 1.0 | 5.0 | 0.00 | 0.00 | 0.00 | 37 | 1010.7 |
| 20260903033826 | 96 | 360 | 2.0 | 5.0 | 0.00 | 0.00 | 0.00 | 37 | 1010.7 |
| 20260903033727 | 96 | 236 | 2.0 | 5.0 | 0.00 | 0.00 | 0.00 | 37 | 1010.7 |
| 20260903033641 | 96 | 236 | 1.0 | 5.0 | 0.00 | 0.00 | 0.00 | 37 | 1010.7 |
| 20260903033523 | 96 | 360 | 1.0 | 5.0 | 0.00 | 0.00 | 0.00 | 37 | 1010.6 |
| 20260903033425 | 96 | 360 | 1.0 | 5.0 | 0.00 | 0.00 | 0.00 | 37 | 1010.6 |
| 20260903033327 | 96 | 360 | 1.0 | 4.0 | 0.00 | 0.00 | 0.00 | 37 | 1010.6 |
| 20260903033236 | 96 | 360 | 1.0 | 4.0 | 0.00 | 0.00 | 0.00 | 37 | 1010.6 |
| 20260903033118 | 96 | 360 | 1.0 | 4.0 | 0.00 | 0.00 | 0.00 | 37 | 1010.6 |
| 20260903033024 | 96 | 360 | 1.0 | 4.0 | 0.00 | 0.00 | 0.00 | 37 | 1010.5 |
| 20260903032925 | 96 | 360 | 1.0 | 4.0 | 0.00 | 0.00 | 0.00 | 37 | 1010.6 |
| 20260903032836 | 96 | 360 | 2.0 | 4.0 | 0.00 | 0.00 | 0.00 | 37 | 1010.6 |
| 20260903032718 | 96 | 360 | 2.0 | 3.0 | 0.00 | 0.00 | 0.00 | 37 | 1010.6 |
| 20260903032617 | 96 | 360 | 1.0 | 4.0 | 0.00 | 0.00 | 0.00 | 37 | 1010.5 |
| 20260903032524 | 96 | 360 | 1.0 | 4.0 | 0.00 | 0.00 | 0.00 | 37 | 1010.5 |
| 20260903032431 | 96 | 360 | 1.0 | 4.0 | 0.00 | 0.00 | 0.00 | 37 | 1010.5 |
| 20260903032359 | 96 | 360 | 1.0 | 4.0 | 0.00 | 0.00 | 0.00 | 37 | 1010.6 |
| 20260903032238 | 96 | 360 | 0.0 | 4.0 | 0.00 | 0.00 | 0.00 | 36 | 1010.5 |
| 20260903032145 | 96 | 360 | 0.0 | 5.0 | 0.00 | 0.00 | 0.00 | 36 | 1010.5 |
| 20260903032026 | 96 | 360 | 0.0 | 5.0 | 0.00 | 0.00 | 0.00 | 36 | 1010.5 |
| 20260903031936 | 97 | 360 | 1.0 | 5.0 | 0.00 | 0.00 | 0.00 | 36 | 1010.5 |
| 20260903031817 | 97 | 360 | 2.0 | 5.0 | 0.00 | 0.00 | 0.00 | 36 | 1010.5 |
| 20260903031723 | 97 | 360 | 1.0 | 5.0 | 0.00 | 0.00 | 0.00 | 36 | 1010.5 |
| 20260903031625 | 97 | 236 | 1.0 | 5.0 | 0.00 | 0.00 | 0.00 | 36 | 1010.5 |
| 20260903031536 | 97 | 360 | 2.0 | 5.0 | 0.00 | 0.00 | 0.00 | 36 | 1010.5 |
| 20260903031435 | 97 | 236 | 2.0 | 5.0 | 0.00 | 0.00 | 0.00 | 36 | 1010.5 |
| 20260903031404 | 97 | 236 | 2.0 | 5.0 | 0.00 | 0.00 | 0.00 | 36 | 1010.5 |
| 20260903031220 | 97 | 360 | 1.0 | 5.0 | 0.00 | 0.00 | 0.00 | 36 | 1010.4 |
| 20260903031120 | 97 | 360 | 1.0 | 5.0 | 0.00 | 0.00 | 0.00 | 36 | 1010.5 |
| 20260903031033 | 97 | 360 | 1.0 | 5.0 | 0.00 | 0.00 | 0.00 | 36 | 1010.5 |
| 20260903030932 | 97 | 360 | 1.0 | 5.0 | 0.00 | 0.00 | 0.00 | 36 | 1010.5 |
| 20260903030831 | 97 | 360 | 1.0 | 5.0 | 0.00 | 0.00 | 0.00 | 35 | 1010.4 |
| 20260903030739 | 97 | 360 | 1.0 | 5.0 | 0.00 | 0.00 | 0.00 | 35 | 1010.4 |
| 20260903030623 | 97 | 236 | 1.0 | 5.0 | 0.00 | 0.00 | 0.00 | 35 | 1010.4 |
| 20260903030523 | 97 | 236 | 1.0 | 5.0 | 0.00 | 0.00 | 0.00 | 35 | 1010.4 |
| 20260903030438 | 97 | 236 | 2.0 | 5.0 | 0.00 | 0.00 | 0.00 | 35 | 1010.4 |
| 20260903030317 | 97 | 236 | 1.0 | 4.0 | 0.00 | 0.00 | 0.00 | 35 | 1010.3 |
| 20260903030219 | 97 | 236 | 1.0 | 4.0 | 0.00 | 0.00 | 0.00 | 35 | 1010.3 |
| 20260903030129 | 97 | 236 | 1.0 | 4.0 | 0.00 | 0.00 | 0.00 | 35 | 1010.3 |
| 20260903030042 | 97 | 236 | 1.0 | 4.0 | 0.00 | 0.00 | 0.00 | 35 | 1010.3 |
| 20260903025939 | 97 | 236 | 1.0 | 4.0 | 0.00 | 0.00 | 0.00 | 35 | 1010.3 |
| 20260903025819 | 97 | 236 | 1.0 | 4.0 | 0.00 | 0.00 | 0.00 | 35 | 1010.3 |
| 20260903025754 | 97 | 236 | 2.0 | 4.0 | 0.00 | 0.00 | 0.00 | 35 | 1010.3 |
| 20260903025632 | 97 | 236 | 2.0 | 6.0 | 0.00 | 0.00 | 0.00 | 35 | 1010.2 |
| 20260903025534 | 97 | 236 | 1.0 | 6.0 | 0.00 | 0.00 | 0.00 | 35 | 1010.3 |
| 20260903025416 | 97 | 236 | 1.0 | 6.0 | 0.00 | 0.00 | 0.00 | 35 | 1010.2 |
| 20260903025324 | 97 | 236 | 0.0 | 6.0 | 0.00 | 0.00 | 0.00 | 34 | 1010.2 |
| 20260903025245 | 97 | 236 | 0.0 | 6.0 | 0.00 | 0.00 | 0.00 | 34 | 1010.2 |
| 20260903025134 | 97 | 236 | 0.0 | 6.0 | 0.00 | 0.00 | 0.00 | 34 | 1010.2 |
| 20260903025021 | 97 | 236 | 2.0 | 6.0 | 0.00 | 0.00 | 0.00 | 34 | 1010.2 |
| 20260903024942 | 97 | 237 | 3.0 | 6.0 | 0.00 | 0.00 | 0.00 | 34 | 1010.2 |
| 20260903024828 | 97 | 237 | 3.0 | 5.0 | 0.00 | 0.00 | 0.00 | 34 | 1010.2 |
| 20260903024729 | 97 | 236 | 2.0 | 6.0 | 0.00 | 0.00 | 0.00 | 34 | 1010.2 |
| 20260903024638 | 97 | 236 | 2.0 | 6.0 | 0.00 | 0.00 | 0.00 | 34 | 1010.2 |
| 20260903024521 | 98 | 236 | 1.0 | 6.0 | 0.00 | 0.00 | 0.00 | 34 | 1010.3 |
| 20260903024425 | 98 | 236 | 1.0 | 6.0 | 0.00 | 0.00 | 0.00 | 34 | 1010.2 |
| 20260903024336 | 98 | 236 | 2.0 | 7.0 | 0.00 | 0.00 | 0.00 | 33 | 1010.2 |
| 20260903024237 | 98 | 236 | 2.0 | 7.0 | 0.00 | 0.00 | 0.00 | 33 | 1010.3 |
| 20260903024118 | 98 | 236 | 1.0 | 7.0 | 0.00 | 0.00 | 0.00 | 33 | 1010.2 |
| 20260903024021 | 98 | 236 | 2.0 | 7.0 | 0.00 | 0.00 | 0.00 | 33 | 1010.3 |
| 20260903023920 | 98 | 236 | 3.0 | 7.0 | 0.00 | 0.00 | 0.00 | 33 | 1010.2 |
| 20260903023834 | 98 | 236 | 3.0 | 7.0 | 0.00 | 0.00 | 0.00 | 33 | 1010.2 |
| 20260903023716 | 98 | 236 | 4.0 | 7.0 | 0.00 | 0.00 | 0.00 | 33 | 1010.2 |
| 20260903023623 | 98 | 236 | 4.0 | 7.0 | 0.00 | 0.00 | 0.00 | 33 | 1010.3 |
| 20260903023525 | 98 | 236 | 4.0 | 7.0 | 0.00 | 0.00 | 0.00 | 33 | 1010.2 |
| 20260903023427 | 98 | 241 | 3.0 | 7.0 | 0.00 | 0.00 | 0.00 | 32 | 1010.3 |
| 20260903023336 | 98 | 242 | 2.0 | 6.0 | 0.00 | 0.00 | 0.00 | 32 | 1010.3 |
| 20260903023237 | 98 | 242 | 1.0 | 9.0 | 0.00 | 0.00 | 0.00 | 32 | 1010.2 |
| 20260903023121 | 98 | 242 | 2.0 | 9.0 | 0.00 | 0.00 | 0.00 | 32 | 1010.3 |
| 20260903023029 | 98 | 242 | 2.0 | 9.0 | 0.00 | 0.00 | 0.00 | 31 | 1010.2 |
| 20260903022932 | 98 | 242 | 2.0 | 9.0 | 0.00 | 0.00 | 0.00 | 31 | 1010.2 |
| 20260903022833 | 98 | 242 | 2.0 | 9.0 | 0.00 | 0.00 | 0.00 | 31 | 1010.1 |
| 20260903022742 | 98 | 242 | 2.0 | 10.0 | 0.00 | 0.00 | 0.00 | 30 | 1010.1 |
| 20260903022621 | 98 | 242 | 4.0 | 10.0 | 0.00 | 0.00 | 0.00 | 30 | 1010.1 |
| 20260903022536 | 98 | 241 | 4.0 | 10.0 | 0.00 | 0.00 | 0.00 | 30 | 1010.1 |
| 20260903022436 | 98 | 235 | 4.0 | 10.0 | 0.00 | 0.00 | 0.00 | 30 | 1010.1 |
| 20260903022344 | 98 | 246 | 3.0 | 10.0 | 0.00 | 0.00 | 0.00 | 31 | 1010.0 |
| 20260903022244 | 98 | 248 | 3.0 | 10.0 | 0.00 | 0.00 | 0.00 | 31 | 1010.0 |
| 20260903022133 | 98 | 248 | 3.0 | 10.0 | 0.00 | 0.00 | 0.00 | 31 | 1010.0 |
| 20260903022051 | 98 | 250 | 4.0 | 10.0 | 0.00 | 0.00 | 0.00 | 31 | 1009.9 |
| 20260903021937 | 98 | 245 | 2.0 | 9.0 | 0.00 | 0.00 | 0.00 | 31 | 1009.9 |
| 20260903021818 | 98 | 245 | 3.0 | 9.0 | 0.00 | 0.00 | 0.00 | 32 | 1009.9 |
| 20260903021722 | 99 | 243 | 3.0 | 9.0 | 0.00 | 0.00 | 0.00 | 31 | 1009.9 |
| 20260903021632 | 99 | 360 | 3.0 | 9.0 | 0.00 | 0.00 | 0.00 | 31 | 1009.9 |
| 20260903021534 | 99 | 360 | 3.0 | 11.0 | 0.00 | 0.00 | 0.00 | 31 | 1009.8 |
| 20260903021502 | 99 | 360 | 3.0 | 11.0 | 0.00 | 0.00 | 0.00 | 31 | 1009.9 |
| 20260903021322 | 99 | 247 | 2.0 | 11.0 | 0.00 | 0.00 | 0.00 | 31 | 1009.8 |
| 20260903021225 | 99 | 247 | 2.0 | 11.0 | 0.00 | 0.00 | 0.00 | 31 | 1009.8 |
| 20260903021135 | 99 | 253 | 2.0 | 11.0 | 0.00 | 0.00 | 0.00 | 31 | 1009.8 |
| 20260903021021 | 99 | 253 | 2.0 | 11.0 | 0.00 | 0.00 | 0.00 | 31 | 1009.8 |
| 20260903020923 | 99 | 254 | 3.0 | 11.0 | 0.00 | 0.00 | 0.00 | 31 | 1009.8 |
| 20260903020833 | 99 | 254 | 3.0 | 11.0 | 0.00 | 0.00 | 0.00 | 31 | 1009.8 |
| 20260903020736 | 99 | 254 | 4.0 | 11.0 | 0.00 | 0.00 | 0.00 | 31 | 1009.8 |
| 20260903020618 | 99 | 243 | 4.0 | 11.0 | 0.00 | 0.00 | 0.00 | 31 | 1009.8 |
| 20260903020519 | 99 | 246 | 3.0 | 8.0 | 0.00 | 0.00 | 0.00 | 31 | 1009.8 |
| 20260903020433 | 99 | 246 | 3.0 | 8.0 | 0.00 | 0.00 | 0.00 | 31 | 1009.8 |
| 20260903020316 | 99 | 247 | 3.0 | 8.0 | 0.00 | 0.00 | 0.00 | 31 | 1009.8 |
| 20260903020238 | 99 | 250 | 3.0 | 8.0 | 0.00 | 0.00 | 0.00 | 31 | 1009.8 |
| 20260903020124 | 99 | 250 | 4.0 | 8.0 | 0.00 | 0.00 | 0.00 | 31 | 1009.8 |
| 20260903020105 | 99 | 250 | 3.0 | 8.0 | 0.00 | 0.00 | 0.00 | 31 | 1009.8 |
| 20260903015933 | 99 | 251 | 3.0 | 8.0 | 0.00 | 0.00 | 0.00 | 31 | 1009.8 |
| 20260903015832 | 99 | 251 | 3.0 | 8.0 | 0.00 | 0.00 | 0.00 | 31 | 1009.8 |
| 20260903015743 | 99 | 251 | 3.0 | 8.0 | 0.00 | 0.00 | 0.00 | 31 | 1009.8 |
| 20260903015645 | 99 | 250 | 4.0 | 8.0 | 0.00 | 0.00 | 0.00 | 31 | 1009.8 |
| 20260903015533 | 99 | 252 | 3.0 | 8.0 | 0.00 | 0.00 | 0.00 | 30 | 1009.8 |
| 20260903015416 | 99 | 261 | 2.0 | 7.0 | 0.00 | 0.00 | 0.00 | 30 | 1009.8 |
| 20260903015332 | 99 | 261 | 3.0 | 7.0 | 0.00 | 0.00 | 0.00 | 30 | 1009.8 |
| 20260903015241 | 99 | 261 | 3.0 | 9.0 | 0.00 | 0.00 | 0.00 | 30 | 1009.9 |
| 20260903015120 | 99 | 262 | 3.0 | 9.0 | 0.00 | 0.00 | 0.00 | 30 | 1009.9 |
| 20260903015034 | 99 | 263 | 3.0 | 9.0 | 0.00 | 0.00 | 0.00 | 30 | 1009.9 |
| 20260903014936 | 99 | 264 | 2.0 | 9.0 | 0.00 | 0.00 | 0.00 | 30 | 1009.9 |
| 20260903014818 | 100 | 263 | 3.0 | 10.0 | 0.00 | 0.00 | 0.00 | 30 | 1009.9 |
| 20260903014720 | 100 | 264 | 4.0 | 10.0 | 0.00 | 0.00 | 0.00 | 30 | 1009.9 |
| 20260903014649 | 100 | 265 | 4.0 | 10.0 | 0.00 | 0.00 | 0.00 | 30 | 1009.9 |
| 20260903014527 | 100 | 265 | 4.0 | 10.0 | 0.00 | 0.00 | 0.00 | 30 | 1009.8 |
| 20260903014419 | 100 | 264 | 5.0 | 10.0 | 0.00 | 0.00 | 0.00 | 30 | 1009.9 |
| 20260903014319 | 100 | 260 | 4.0 | 10.0 | 0.00 | 0.00 | 0.00 | 30 | 1009.9 |
| 20260903014227 | 100 | 256 | 4.0 | 10.0 | 0.00 | 0.00 | 0.00 | 30 | 1009.8 |
| 20260903014127 | 100 | 252 | 4.0 | 10.0 | 0.00 | 0.00 | 0.00 | 31 | 1009.8 |
| 20260903013941 | 100 | 238 | 4.0 | 8.0 | 0.00 | 0.00 | 0.00 | 31 | 1009.8 |
| 20260903013823 | 100 | 231 | 3.0 | 8.0 | 0.00 | 0.00 | 0.00 | 31 | 1009.7 |
| 20260903013744 | 100 | 231 | 3.0 | 8.0 | 0.00 | 0.00 | 0.00 | 31 | 1009.7 |
| 20260903013633 | 100 | 233 | 2.0 | 8.0 | 0.00 | 0.00 | 0.00 | 31 | 1009.7 |
| 20260903013533 | 100 | 231 | 3.0 | 8.0 | 0.00 | 0.00 | 0.00 | 31 | 1009.6 |
| 20260903013432 | 100 | 230 | 4.0 | 8.0 | 0.00 | 0.00 | 0.00 | 31 | 1009.8 |
| 20260903013340 | 100 | 255 | 4.0 | 8.0 | 0.00 | 0.00 | 0.00 | 31 | 1009.7 |
| 20260903013223 | 100 | 247 | 4.0 | 8.0 | 0.00 | 0.00 | 0.00 | 30 | 1009.8 |
| 20260903013145 | 100 | 247 | 4.0 | 7.0 | 0.00 | 0.00 | 0.00 | 30 | 1009.7 |
| 20260903013035 | 100 | 251 | 3.0 | 7.0 | 0.00 | 0.00 | 0.00 | 30 | 1009.7 |
| 20260903012916 | 100 | 251 | 2.0 | 7.0 | 0.00 | 0.00 | 0.00 | 30 | 1009.6 |
| 20260903012817 | 100 | 251 | 1.0 | 7.0 | 0.00 | 0.00 | 0.00 | 30 | 1009.6 |
| 20260903012746 | 100 | 251 | 1.0 | 7.0 | 0.00 | 0.00 | 0.00 | 30 | 1009.6 |
| 20260903012627 | 101 | 251 | 1.0 | 7.0 | 0.00 | 0.00 | 0.00 | 30 | 1009.6 |
| 20260903012537 | 101 | 251 | 1.0 | 7.0 | 0.00 | 0.00 | 0.00 | 30 | 1009.6 |
| 20260903012421 | 101 | 250 | 2.0 | 7.0 | 0.00 | 0.00 | 0.00 | 29 | 1009.6 |
| 20260903012346 | 101 | 250 | 2.0 | 7.0 | 0.00 | 0.00 | 0.00 | 29 | 1009.6 |
| 20260903012315 | 101 | 248 | 1.0 | 7.0 | 0.00 | 0.00 | 0.00 | 29 | 1009.5 |
| 20260903012115 | 101 | 248 | 1.0 | 7.0 | 0.00 | 0.00 | 0.00 | 29 | 1009.5 |
| 20260903012044 | 101 | 246 | 2.0 | 7.0 | 0.00 | 0.00 | 0.00 | 29 | 1009.6 |
| 20260903011924 | 101 | 246 | 4.0 | 7.0 | 0.00 | 0.00 | 0.00 | 29 | 1009.6 |
| 20260903011825 | 101 | 244 | 3.0 | 7.0 | 0.00 | 0.00 | 0.00 | 29 | 1009.6 |
| 20260903011739 | 101 | 240 | 2.0 | 7.0 | 0.00 | 0.00 | 0.00 | 29 | 1009.6 |
| 20260903011622 | 101 | 240 | 2.0 | 7.0 | 0.00 | 0.00 | 0.00 | 29 | 1009.6 |
| 20260903011523 | 101 | 240 | 2.0 | 7.0 | 0.00 | 0.00 | 0.00 | 29 | 1009.6 |
| 20260903011423 | 101 | 240 | 2.0 | 7.0 | 0.00 | 0.00 | 0.00 | 29 | 1009.7 |
| 20260903011353 | 101 | 241 | 2.0 | 7.0 | 0.00 | 0.00 | 0.00 | 29 | 1009.7 |
| 20260903011233 | 101 | 242 | 3.0 | 8.0 | 0.00 | 0.00 | 0.00 | 29 | 1009.6 |
| 20260903011140 | 101 | 239 | 4.0 | 8.0 | 0.00 | 0.00 | 0.00 | 29 | 1009.6 |
| 20260903011024 | 101 | 240 | 3.0 | 8.0 | 0.00 | 0.00 | 0.00 | 29 | 1009.6 |
| 20260903010954 | 101 | 240 | 3.0 | 8.0 | 0.00 | 0.00 | 0.00 | 29 | 1009.6 |
| 20260903010832 | 101 | 240 | 3.0 | 8.0 | 0.00 | 0.00 | 0.00 | 29 | 1009.6 |
| 20260903010740 | 101 | 240 | 3.0 | 8.0 | 0.00 | 0.00 | 0.00 | 29 | 1009.6 |
| 20260903010618 | 101 | 234 | 4.0 | 8.0 | 0.00 | 0.00 | 0.00 | 29 | 1009.6 |
| 20260903010520 | 101 | 233 | 4.0 | 8.0 | 0.00 | 0.00 | 0.00 | 29 | 1009.6 |
| 20260903010424 | 101 | 246 | 3.0 | 6.0 | 0.00 | 0.00 | 0.00 | 29 | 1009.5 |
| 20260903010331 | 101 | 250 | 3.0 | 6.0 | 0.00 | 0.00 | 0.00 | 29 | 1009.5 |
| 20260903010228 | 101 | 249 | 3.0 | 7.0 | 0.00 | 0.00 | 0.00 | 29 | 1009.6 |
| 20260903010159 | 101 | 250 | 3.0 | 7.0 | 0.00 | 0.00 | 0.00 | 29 | 1009.6 |
| 20260903010029 | 101 | 250 | 2.0 | 8.0 | 0.00 | 0.00 | 0.00 | 29 | 1009.6 |
| 20260903005920 | 101 | 250 | 2.0 | 8.0 | 0.00 | 0.00 | 0.00 | 29 | 1009.5 |
| 20260903005828 | 101 | 250 | 2.0 | 8.0 | 0.00 | 0.00 | 0.00 | 29 | 1009.5 |
| 20260903005734 | 101 | 250 | 2.0 | 8.0 | 0.00 | 0.00 | 0.00 | 29 | 1009.5 |
| 20260903005636 | 101 | 250 | 2.0 | 12.0 | 0.00 | 0.00 | 0.00 | 28 | 1009.6 |
| 20260903005544 | 101 | 250 | 3.0 | 12.0 | 0.00 | 0.00 | 0.00 | 28 | 1009.6 |
| 20260903005423 | 101 | 250 | 3.0 | 12.0 | 0.00 | 0.00 | 0.00 | 29 | 1009.6 |
| 20260903005325 | 101 | 255 | 3.0 | 12.0 | 0.00 | 0.00 | 0.00 | 28 | 1009.7 |
| 20260903005234 | 101 | 255 | 3.0 | 12.0 | 0.00 | 0.00 | 0.00 | 28 | 1009.7 |
| 20260903005203 | 101 | 253 | 3.0 | 12.0 | 0.00 | 0.00 | 0.00 | 29 | 1009.6 |
| 20260903005026 | 101 | 246 | 4.0 | 12.0 | 0.00 | 0.00 | 0.00 | 28 | 1009.6 |
| 20260903004926 | 101 | 245 | 5.0 | 12.0 | 0.00 | 0.00 | 0.00 | 28 | 1009.5 |
| 20260903004829 | 101 | 247 | 4.0 | 12.0 | 0.00 | 0.00 | 0.00 | 28 | 1009.6 |
| 20260903004738 | 101 | 260 | 3.0 | 8.0 | 0.00 | 0.00 | 0.00 | 28 | 1009.6 |
| 20260903004641 | 102 | 262 | 3.0 | 8.0 | 0.00 | 0.00 | 0.00 | 28 | 1009.6 |
| 20260903004520 | 102 | 269 | 3.0 | 8.0 | 0.00 | 0.00 | 0.00 | 28 | 1009.5 |
| 20260903004434 | 102 | 269 | 4.0 | 8.0 | 0.00 | 0.00 | 0.00 | 28 | 1009.5 |
| 20260903004315 | 102 | 269 | 4.0 | 8.0 | 0.00 | 0.00 | 0.00 | 28 | 1009.5 |
| 20260903004216 | 102 | 267 | 3.0 | 8.0 | 0.00 | 0.00 | 0.00 | 28 | 1009.5 |
| 20260903004126 | 102 | 271 | 3.0 | 8.0 | 0.00 | 0.00 | 0.00 | 28 | 1009.5 |
| 20260903004029 | 102 | 252 | 4.0 | 8.0 | 0.00 | 0.00 | 0.00 | 28 | 1009.6 |
| 20260903003930 | 102 | 252 | 5.0 | 8.0 | 0.00 | 0.00 | 0.00 | 28 | 1009.6 |
| 20260903003841 | 102 | 276 | 4.0 | 8.0 | 0.00 | 0.00 | 0.00 | 28 | 1009.6 |
| 20260903003721 | 102 | 278 | 4.0 | 8.0 | 0.00 | 0.00 | 0.00 | 28 | 1009.6 |
| 20260903003629 | 102 | 281 | 3.0 | 8.0 | 0.00 | 0.00 | 0.00 | 28 | 1009.6 |
| 20260903003532 | 102 | 286 | 2.0 | 8.0 | 0.00 | 0.00 | 0.00 | 28 | 1009.6 |
| 20260903003433 | 102 | 266 | 2.0 | 8.0 | 0.00 | 0.00 | 0.00 | 28 | 1009.7 |
| 20260903003341 | 102 | 266 | 3.0 | 8.0 | 0.00 | 0.00 | 0.00 | 29 | 1009.6 |
| 20260903003221 | 102 | 245 | 4.0 | 8.0 | 0.00 | 0.00 | 0.00 | 29 | 1009.7 |
| 20260903003149 | 102 | 246 | 4.0 | 8.0 | 0.00 | 0.00 | 0.00 | 29 | 1009.6 |
| 20260903003015 | 102 | 248 | 4.0 | 8.0 | 0.00 | 0.00 | 0.00 | 28 | 1009.6 |
| 20260903002917 | 102 | 248 | 4.0 | 8.0 | 0.00 | 0.00 | 0.00 | 29 | 1009.6 |
| 20260903002847 | 102 | 248 | 3.0 | 8.0 | 0.00 | 0.00 | 0.00 | 29 | 1009.6 |
| 20260903002728 | 102 | 246 | 2.0 | 8.0 | 0.00 | 0.00 | 0.00 | 29 | 1009.6 |
| 20260903002638 | 102 | 251 | 2.0 | 8.0 | 0.00 | 0.00 | 0.00 | 29 | 1009.6 |
| 20260903002520 | 102 | 252 | 3.0 | 8.0 | 0.00 | 0.00 | 0.00 | 29 | 1009.7 |
| 20260903002426 | 102 | 252 | 4.0 | 8.0 | 0.00 | 0.00 | 0.00 | 29 | 1009.7 |
| 20260903002334 | 102 | 252 | 4.0 | 8.0 | 0.00 | 0.00 | 0.00 | 28 | 1009.7 |
| 20260903002233 | 102 | 259 | 3.0 | 7.0 | 0.00 | 0.00 | 0.00 | 29 | 1009.6 |
| 20260903002141 | 103 | 258 | 2.0 | 7.0 | 0.00 | 0.00 | 0.00 | 29 | 1009.6 |
| 20260903002021 | 102 | 258 | 3.0 | 8.0 | 0.00 | 0.00 | 0.00 | 29 | 1009.6 |
| 20260903001930 | 102 | 258 | 2.0 | 8.0 | 0.00 | 0.00 | 0.00 | 29 | 1009.6 |
| 20260903001851 | 102 | 258 | 2.0 | 8.0 | 0.00 | 0.00 | 0.00 | 30 | 1009.7 |
| 20260903001738 | 102 | 258 | 2.0 | 8.0 | 0.00 | 0.00 | 0.00 | 29 | 1009.7 |
| 20260903001624 | 102 | 258 | 1.0 | 8.0 | 0.00 | 0.00 | 0.00 | 30 | 1009.7 |
| 20260903001526 | 102 | 257 | 1.0 | 8.0 | 0.00 | 0.00 | 0.00 | 30 | 1009.6 |
| 20260903001428 | 102 | 257 | 4.0 | 8.0 | 0.00 | 0.00 | 0.00 | 29 | 1009.8 |
| 20260903001337 | 102 | 258 | 3.0 | 9.0 | 0.00 | 0.00 | 0.00 | 29 | 1009.8 |
| 20260903001220 | 102 | 261 | 3.0 | 9.0 | 0.00 | 0.00 | 0.00 | 29 | 1009.7 |
| 20260903001121 | 102 | 261 | 3.0 | 9.0 | 0.00 | 0.00 | 0.00 | 29 | 1009.7 |
| 20260903001033 | 103 | 261 | 3.0 | 9.0 | 0.00 | 0.00 | 0.00 | 29 | 1009.7 |
| 20260903000935 | 102 | 261 | 3.0 | 9.0 | 0.00 | 0.00 | 0.00 | 29 | 1009.8 |
| 20260903000817 | 102 | 252 | 3.0 | 9.0 | 0.00 | 0.00 | 0.00 | 29 | 1009.7 |
| 20260903000632 | 102 | 248 | 4.0 | 9.0 | 0.00 | 0.00 | 0.00 | 29 | 1009.7 |
| 20260903000532 | 103 | 248 | 3.0 | 9.0 | 0.00 | 0.00 | 0.00 | 29 | 1009.8 |
| 20260903000417 | 103 | 245 | 3.0 | 8.0 | 0.00 | 0.00 | 0.00 | 29 | 1009.7 |
| 20260903000321 | 103 | 243 | 2.0 | 8.0 | 0.00 | 0.00 | 0.00 | 29 | 1009.6 |
| 20260903000221 | 103 | 243 | 1.0 | 8.0 | 0.00 | 0.00 | 0.00 | 29 | 1009.8 |
| 20260903000131 | 102 | 242 | 2.0 | 8.0 | 0.00 | 0.00 | 0.00 | 29 | 1009.8 |
| 20260903000043 | 102 | 242 | 4.0 | 8.0 | 0.00 | 0.00 | 0.00 | 29 | 1009.8 |
| 20260902235918 | 103 | 247 | 3.0 | 9.0 | 0.00 | 0.00 | 0.00 | 29 | 1009.8 |
| 20260902235821 | 102 | 250 | 2.0 | 9.0 | 0.00 | 0.00 | 0.00 | 29 | 1009.8 |
| 20260902235726 | 102 | 248 | 2.0 | 9.0 | 0.00 | 0.00 | 0.00 | 29 | 1009.8 |
| 20260902235636 | 102 | 248 | 3.0 | 9.0 | 0.00 | 0.00 | 0.00 | 29 | 1009.8 |
| 20260902235537 | 102 | 248 | 4.0 | 9.0 | 0.00 | 0.00 | 0.00 | 29 | 1009.8 |
| 20260902235418 | 102 | 248 | 3.0 | 9.0 | 0.00 | 0.00 | 0.00 | 29 | 1009.8 |
| 20260902235328 | 103 | 248 | 4.0 | 9.0 | 0.00 | 0.00 | 0.00 | 29 | 1009.8 |
| 20260902235228 | 103 | 247 | 4.0 | 9.0 | 0.00 | 0.00 | 0.00 | 29 | 1009.9 |
| 20260902235115 | 103 | 245 | 5.0 | 9.0 | 0.00 | 0.00 | 0.00 | 29 | 1009.8 |
| 20260902235016 | 103 | 238 | 5.0 | 9.0 | 0.00 | 0.00 | 0.00 | 29 | 1009.8 |
| 20260902234926 | 103 | 231 | 5.0 | 9.0 | 0.00 | 0.00 | 0.00 | 29 | 1009.9 |
| 20260902234826 | 103 | 229 | 4.0 | 9.0 | 0.00 | 0.00 | 0.00 | 29 | 1009.9 |
| 20260902234729 | 102 | 231 | 3.0 | 9.0 | 0.00 | 0.00 | 0.00 | 29 | 1009.9 |
| 20260902234639 | 102 | 228 | 4.0 | 9.0 | 0.00 | 0.00 | 0.00 | 29 | 1009.9 |
| 20260902234523 | 103 | 229 | 5.0 | 9.0 | 0.00 | 0.00 | 0.00 | 29 | 1009.9 |
| 20260902234425 | 103 | 228 | 4.0 | 9.0 | 0.00 | 0.00 | 0.00 | 29 | 1010.0 |
| 20260902234355 | 103 | 217 | 4.0 | 8.0 | 0.00 | 0.00 | 0.00 | 29 | 1010.0 |
| 20260902234233 | 103 | 215 | 3.0 | 8.0 | 0.00 | 0.00 | 0.00 | 29 | 1010.0 |
| 20260902234141 | 102 | 215 | 3.0 | 8.0 | 0.00 | 0.00 | 0.00 | 29 | 1010.0 |
| 20260902234042 | 102 | 215 | 3.0 | 8.0 | 0.00 | 0.00 | 0.00 | 29 | 1010.0 |
| 20260902233921 | 102 | 215 | 3.0 | 8.0 | 0.00 | 0.00 | 0.00 | 29 | 1009.9 |
| 20260902233855 | 103 | 215 | 4.0 | 8.0 | 0.00 | 0.00 | 0.00 | 29 | 1009.9 |
| 20260902233742 | 103 | 212 | 4.0 | 8.0 | 0.00 | 0.00 | 0.00 | 29 | 1009.9 |
| 20260902233642 | 103 | 216 | 3.0 | 8.0 | 0.00 | 0.00 | 0.00 | 29 | 1009.9 |
| 20260902233522 | 102 | 215 | 3.0 | 8.0 | 0.00 | 0.00 | 0.00 | 29 | 1010.0 |
| 20260902233433 | 102 | 248 | 2.0 | 6.0 | 0.00 | 0.00 | 0.00 | 29 | 1010.0 |
| 20260902233333 | 102 | 255 | 3.0 | 6.0 | 0.00 | 0.00 | 0.00 | 29 | 1010.0 |
| 20260902233233 | 102 | 255 | 2.0 | 7.0 | 0.00 | 0.00 | 0.00 | 29 | 1010.1 |
| 20260902233146 | 102 | 255 | 2.0 | 9.0 | 0.00 | 0.00 | 0.00 | 29 | 1010.1 |
| 20260902233054 | 102 | 255 | 3.0 | 10.0 | 0.00 | 0.00 | 0.00 | 29 | 1010.1 |
| 20260902232932 | 102 | 255 | 3.0 | 10.0 | 0.00 | 0.00 | 0.00 | 29 | 1010.1 |
| 20260902232833 | 102 | 255 | 3.0 | 10.0 | 0.00 | 0.00 | 0.00 | 29 | 1010.0 |
| 20260902232741 | 102 | 260 | 2.0 | 10.0 | 0.00 | 0.00 | 0.00 | 29 | 1010.0 |
| 20260902232624 | 102 | 260 | 2.0 | 10.0 | 0.00 | 0.00 | 0.00 | 29 | 1010.1 |
| 20260902232526 | 103 | 260 | 3.0 | 10.0 | 0.00 | 0.00 | 0.00 | 29 | 1010.1 |
| 20260902232433 | 103 | 260 | 5.0 | 10.0 | 0.00 | 0.00 | 0.00 | 29 | 1010.1 |
| 20260902232341 | 103 | 260 | 6.0 | 10.0 | 0.00 | 0.00 | 0.00 | 29 | 1010.1 |
| 20260902232223 | 103 | 260 | 5.0 | 10.0 | 0.00 | 0.00 | 0.00 | 28 | 1010.2 |
| 20260902232124 | 103 | 255 | 3.0 | 6.0 | 0.00 | 0.00 | 0.00 | 28 | 1010.2 |
| 20260902232026 | 103 | 262 | 2.0 | 6.0 | 0.00 | 0.00 | 0.00 | 29 | 1010.2 |
| 20260902231936 | 103 | 262 | 3.0 | 7.0 | 0.00 | 0.00 | 0.00 | 28 | 1010.2 |
| 20260902231822 | 103 | 262 | 3.0 | 7.0 | 0.00 | 0.00 | 0.00 | 28 | 1010.3 |
| 20260902231723 | 104 | 262 | 2.0 | 7.0 | 0.00 | 0.00 | 0.00 | 28 | 1010.3 |
| 20260902231654 | 104 | 263 | 2.0 | 7.0 | 0.00 | 0.00 | 0.00 | 29 | 1010.3 |
| 20260902231532 | 103 | 263 | 3.0 | 8.0 | 0.00 | 0.00 | 0.00 | 29 | 1010.3 |
| 20260902231500 | 103 | 262 | 4.0 | 8.0 | 0.00 | 0.00 | 0.00 | 29 | 1010.3 |
| 20260902231318 | 104 | 262 | 3.0 | 8.0 | 0.00 | 0.00 | 0.00 | 28 | 1010.4 |
| 20260902231228 | 104 | 262 | 4.0 | 8.0 | 0.00 | 0.00 | 0.00 | 28 | 1010.4 |
| 20260902231132 | 103 | 262 | 4.0 | 8.0 | 0.00 | 0.00 | 0.00 | 28 | 1010.4 |
| 20260902231040 | 103 | 261 | 3.0 | 8.0 | 0.00 | 0.00 | 0.00 | 29 | 1010.4 |
| 20260902230921 | 103 | 261 | 2.0 | 10.0 | 0.00 | 0.00 | 0.00 | 28 | 1010.3 |
| 20260902230823 | 103 | 261 | 3.0 | 10.0 | 0.00 | 0.00 | 0.00 | 29 | 1010.4 |
| 20260902230725 | 103 | 261 | 4.0 | 10.0 | 0.00 | 0.00 | 0.00 | 29 | 1010.4 |
| 20260902230634 | 103 | 258 | 2.0 | 10.0 | 0.00 | 0.00 | 0.00 | 29 | 1010.4 |
| 20260902230519 | 103 | 258 | 3.0 | 10.0 | 0.00 | 0.00 | 0.00 | 29 | 1010.5 |
| 20260902230441 | 103 | 257 | 4.0 | 10.0 | 0.00 | 0.00 | 0.00 | 29 | 1010.5 |
| 20260902230331 | 103 | 262 | 4.0 | 10.0 | 0.00 | 0.00 | 0.00 | 29 | 1010.5 |
| 20260902230232 | 103 | 269 | 4.0 | 10.0 | 0.00 | 0.00 | 0.00 | 29 | 1010.4 |
| 20260902230133 | 103 | 240 | 5.0 | 10.0 | 0.00 | 0.00 | 0.00 | 29 | 1010.4 |
| 20260902230033 | 103 | 243 | 5.0 | 10.0 | 0.00 | 0.00 | 0.00 | 29 | 1010.4 |
| 20260902225928 | 103 | 255 | 4.0 | 9.0 | 0.00 | 0.00 | 0.00 | 29 | 1010.5 |
| 20260902225829 | 103 | 256 | 4.0 | 9.0 | 0.00 | 0.00 | 0.00 | 28 | 1010.5 |
| 20260902225739 | 103 | 256 | 5.0 | 9.0 | 0.00 | 0.00 | 0.00 | 28 | 1010.5 |
| 20260902225621 | 103 | 247 | 4.0 | 14.0 | 0.00 | 0.00 | 0.00 | 29 | 1010.5 |
| 20260902225523 | 102 | 247 | 5.0 | 14.0 | 0.00 | 0.00 | 0.00 | 29 | 1010.5 |
| 20260902225422 | 102 | 247 | 4.0 | 14.0 | 0.00 | 0.00 | 0.00 | 29 | 1010.5 |
| 20260902225337 | 103 | 247 | 4.0 | 14.0 | 0.00 | 0.00 | 0.00 | 29 | 1010.5 |
| 20260902225239 | 103 | 243 | 3.0 | 14.0 | 0.00 | 0.00 | 0.00 | 29 | 1010.6 |
| 20260902225208 | 103 | 243 | 5.0 | 14.0 | 0.00 | 0.00 | 0.00 | 29 | 1010.6 |
| 20260902225029 | 103 | 271 | 6.0 | 14.0 | 0.00 | 0.00 | 0.00 | 29 | 1010.6 |
| 20260902224938 | 103 | 260 | 7.0 | 14.0 | 0.00 | 0.00 | 0.00 | 29 | 1010.6 |
| 20260902224818 | 103 | 235 | 6.0 | 14.0 | 0.00 | 0.00 | 0.00 | 29 | 1010.7 |
| 20260902224720 | 103 | 224 | 5.0 | 10.0 | 0.00 | 0.00 | 0.00 | 29 | 1010.6 |
| 20260902224635 | 103 | 219 | 5.0 | 10.0 | 0.00 | 0.00 | 0.00 | 29 | 1010.6 |
| 20260902224535 | 103 | 214 | 4.0 | 10.0 | 0.00 | 0.00 | 0.00 | 29 | 1010.6 |
| 20260902224442 | 103 | 219 | 5.0 | 10.0 | 0.00 | 0.00 | 0.00 | 29 | 1010.7 |
| 20260902224324 | 104 | 278 | 5.0 | 10.0 | 0.00 | 0.00 | 0.00 | 29 | 1010.6 |
| 20260902224226 | 103 | 270 | 5.0 | 10.0 | 0.00 | 0.00 | 0.00 | 29 | 1010.7 |
| 20260902224126 | 103 | 287 | 5.0 | 10.0 | 0.00 | 0.00 | 0.00 | 29 | 1010.7 |
| 20260902224037 | 103 | 274 | 4.0 | 10.0 | 0.00 | 0.00 | 0.00 | 30 | 1010.7 |
| 20260902223943 | 103 | 232 | 3.0 | 10.0 | 0.00 | 0.00 | 0.00 | 30 | 1010.7 |
| 20260902223849 | 103 | 231 | 3.0 | 10.0 | 0.00 | 0.00 | 0.00 | 30 | 1010.7 |
| 20260902223729 | 103 | 233 | 4.0 | 10.0 | 0.00 | 0.00 | 0.00 | 30 | 1010.8 |
| 20260902223632 | 103 | 265 | 4.0 | 10.0 | 0.00 | 0.00 | 0.00 | 30 | 1010.8 |
| 20260902223540 | 102 | 292 | 5.0 | 10.0 | 0.00 | 0.00 | 0.00 | 30 | 1010.7 |
| 20260902223423 | 102 | 288 | 3.0 | 10.0 | 0.00 | 0.00 | 0.00 | 30 | 1010.9 |
| 20260902223323 | 102 | 232 | 1.0 | 11.0 | 0.00 | 0.00 | 0.00 | 30 | 1010.7 |
| 20260902223257 | 102 | 232 | 1.0 | 11.0 | 0.00 | 0.00 | 0.00 | 29 | 1010.7 |
| 20260902223142 | 102 | 232 | 2.0 | 11.0 | 0.00 | 0.00 | 0.00 | 29 | 1010.8 |
| 20260902223022 | 102 | 232 | 1.0 | 11.0 | 0.00 | 0.00 | 0.00 | 29 | 1010.9 |
| 20260902222924 | 102 | 232 | 3.0 | 11.0 | 0.00 | 0.00 | 0.00 | 29 | 1011.0 |
| 20260902222833 | 102 | 233 | 4.0 | 11.0 | 0.00 | 0.00 | 0.00 | 29 | 1011.0 |
| 20260902222734 | 103 | 219 | 4.0 | 11.0 | 0.00 | 0.00 | 0.00 | 29 | 1011.0 |
| 20260902222643 | 103 | 218 | 5.0 | 11.0 | 0.00 | 0.00 | 0.00 | 30 | 1011.1 |
| 20260902222526 | 103 | 215 | 5.0 | 11.0 | 0.00 | 0.00 | 0.00 | 29 | 1010.9 |
| 20260902222457 | 103 | 271 | 4.0 | 11.0 | 0.00 | 0.00 | 0.00 | 29 | 1010.9 |
| 20260902222316 | 103 | 276 | 4.0 | 11.0 | 0.00 | 0.00 | 0.00 | 29 | 1011.0 |
| 20260902222216 | 103 | 271 | 5.0 | 11.0 | 0.00 | 0.00 | 0.00 | 29 | 1011.0 |
| 20260902222146 | 103 | 271 | 5.0 | 14.0 | 0.00 | 0.00 | 0.00 | 29 | 1011.0 |
| 20260902222026 | 103 | 270 | 5.0 | 14.0 | 0.00 | 0.00 | 0.00 | 29 | 1011.0 |
| 20260902221927 | 103 | 269 | 5.0 | 14.0 | 0.00 | 0.00 | 0.00 | 29 | 1011.0 |
| 20260902221841 | 103 | 264 | 5.0 | 14.0 | 0.00 | 0.00 | 0.00 | 29 | 1011.0 |
| 20260902221721 | 103 | 257 | 6.0 | 14.0 | 0.00 | 0.00 | 0.00 | 30 | 1011.0 |
| 20260902221623 | 102 | 213 | 5.0 | 14.0 | 0.00 | 0.00 | 0.00 | 30 | 1011.0 |
| 20260902221524 | 103 | 249 | 4.0 | 14.0 | 0.00 | 0.00 | 0.00 | 30 | 1011.0 |
| 20260902221435 | 103 | 220 | 5.0 | 14.0 | 0.00 | 0.00 | 0.00 | 30 | 1011.0 |
| 20260902221335 | 103 | 240 | 5.0 | 14.0 | 0.00 | 0.00 | 0.00 | 30 | 1011.0 |
| 20260902221226 | 103 | 243 | 4.0 | 10.0 | 0.00 | 0.00 | 0.00 | 30 | 1011.0 |
| 20260902221126 | 103 | 267 | 2.0 | 10.0 | 0.00 | 0.00 | 0.00 | 29 | 1011.1 |
| 20260902221056 | 103 | 268 | 1.0 | 11.0 | 0.00 | 0.00 | 0.00 | 29 | 1011.1 |
| 20260902220916 | 103 | 268 | 3.0 | 11.0 | 0.00 | 0.00 | 0.00 | 29 | 1011.1 |
| 20260902220818 | 103 | 274 | 4.0 | 13.0 | 0.00 | 0.00 | 0.00 | 29 | 1011.1 |
| 20260902220719 | 103 | 274 | 5.0 | 13.0 | 0.00 | 0.00 | 0.00 | 29 | 1011.2 |
| 20260902220627 | 103 | 273 | 4.0 | 13.0 | 0.00 | 0.00 | 0.00 | 29 | 1011.2 |
| 20260902220533 | 103 | 252 | 4.0 | 13.0 | 0.00 | 0.00 | 0.00 | 29 | 1011.2 |
| 20260902220433 | 103 | 274 | 5.0 | 13.0 | 0.00 | 0.00 | 0.00 | 29 | 1011.3 |
| 20260902220339 | 103 | 274 | 6.0 | 13.0 | 0.00 | 0.00 | 0.00 | 29 | 1011.3 |
| 20260902220220 | 103 | 285 | 6.0 | 13.0 | 0.00 | 0.00 | 0.00 | 29 | 1011.3 |
| 20260902220120 | 103 | 246 | 5.0 | 13.0 | 0.00 | 0.00 | 0.00 | 29 | 1011.3 |
| 20260902220041 | 103 | 232 | 5.0 | 13.0 | 0.00 | 0.00 | 0.00 | 30 | 1011.3 |
| 20260902215933 | 103 | 265 | 6.0 | 12.0 | 0.00 | 0.00 | 0.00 | 29 | 1011.3 |
| 20260902215843 | 104 | 262 | 5.0 | 12.0 | 0.00 | 0.00 | 0.00 | 29 | 1011.4 |
| 20260902215744 | 104 | 270 | 4.0 | 12.0 | 0.00 | 0.00 | 0.00 | 29 | 1011.4 |
| 20260902215623 | 104 | 255 | 3.0 | 9.0 | 0.00 | 0.00 | 0.00 | 29 | 1011.4 |
| 20260902215534 | 104 | 235 | 3.0 | 9.0 | 0.00 | 0.00 | 0.00 | 29 | 1011.4 |
| 20260902215416 | 103 | 238 | 3.0 | 10.0 | 0.00 | 0.00 | 0.00 | 30 | 1011.5 |
| 20260902215322 | 103 | 237 | 3.0 | 10.0 | 0.00 | 0.00 | 0.00 | 30 | 1011.5 |
| 20260902215224 | 103 | 237 | 3.0 | 10.0 | 0.00 | 0.00 | 0.00 | 29 | 1011.5 |
| 20260902215155 | 103 | 237 | 4.0 | 10.0 | 0.00 | 0.00 | 0.00 | 30 | 1011.5 |
| 20260902215017 | 103 | 229 | 5.0 | 10.0 | 0.00 | 0.00 | 0.00 | 30 | 1011.5 |
| 20260902214917 | 103 | 234 | 5.0 | 10.0 | 0.00 | 0.00 | 0.00 | 29 | 1011.6 |
| 20260902214826 | 103 | 251 | 5.0 | 10.0 | 0.00 | 0.00 | 0.00 | 29 | 1011.4 |
| 20260902214728 | 103 | 243 | 6.0 | 10.0 | 0.00 | 0.00 | 0.00 | 29 | 1011.6 |
| 20260902214642 | 104 | 226 | 5.0 | 10.0 | 0.00 | 0.00 | 0.00 | 29 | 1011.6 |
| 20260902214521 | 103 | 264 | 3.0 | 8.0 | 0.00 | 0.00 | 0.00 | 29 | 1011.6 |
| 20260902214421 | 103 | 312 | 3.0 | 8.0 | 0.00 | 0.00 | 0.00 | 30 | 1011.5 |
| 20260902214328 | 103 | 312 | 3.0 | 8.0 | 0.00 | 0.00 | 0.00 | 30 | 1011.7 |
| 20260902214228 | 103 | 268 | 3.0 | 10.0 | 0.00 | 0.00 | 0.00 | 30 | 1011.7 |
| 20260902214137 | 103 | 241 | 4.0 | 10.0 | 0.00 | 0.00 | 0.00 | 29 | 1011.7 |
| 20260902214022 | 103 | 254 | 4.0 | 10.0 | 0.00 | 0.00 | 0.00 | 29 | 1011.7 |
| 20260902213924 | 103 | 210 | 4.0 | 11.0 | 0.00 | 0.00 | 0.00 | 28 | 1011.7 |
| 20260902213824 | 104 | 252 | 5.0 | 11.0 | 0.00 | 0.00 | 0.00 | 29 | 1011.7 |
| 20260902213735 | 104 | 258 | 4.0 | 11.0 | 0.00 | 0.00 | 0.00 | 28 | 1011.7 |
| 20260902213636 | 104 | 265 | 5.0 | 11.0 | 0.00 | 0.00 | 0.00 | 29 | 1011.7 |
| 20260902213517 | 103 | 265 | 5.0 | 11.0 | 0.00 | 0.00 | 0.00 | 29 | 1011.7 |
| 20260902213426 | 103 | 214 | 5.0 | 11.0 | 0.00 | 0.00 | 0.00 | 30 | 1011.7 |
| 20260902213332 | 103 | 217 | 6.0 | 11.0 | 0.00 | 0.00 | 0.00 | 29 | 1011.7 |
| 20260902213240 | 103 | 250 | 6.0 | 11.0 | 0.00 | 0.00 | 0.00 | 29 | 1011.7 |
| 20260902213122 | 103 | 256 | 5.0 | 11.0 | 0.00 | 0.00 | 0.00 | 29 | 1011.7 |
| 20260902213022 | 103 | 285 | 4.0 | 10.0 | 0.00 | 0.00 | 0.00 | 29 | 1011.7 |
| 20260902212952 | 103 | 251 | 4.0 | 10.0 | 0.00 | 0.00 | 0.00 | 29 | 1011.7 |
| 20260902212829 | 103 | 241 | 3.0 | 10.0 | 0.00 | 0.00 | 0.00 | 29 | 1011.8 |
| 20260902212736 | 103 | 221 | 2.0 | 10.0 | 0.00 | 0.00 | 0.00 | 29 | 1011.8 |
| 20260902212622 | 103 | 220 | 2.0 | 10.0 | 0.00 | 0.00 | 0.00 | 29 | 1011.8 |
| 20260902212524 | 103 | 223 | 3.0 | 10.0 | 0.00 | 0.00 | 0.00 | 28 | 1011.8 |
| 20260902212432 | 103 | 243 | 4.0 | 10.0 | 0.00 | 0.00 | 0.00 | 28 | 1011.8 |
| 20260902212333 | 103 | 181 | 5.0 | 10.0 | 0.00 | 0.00 | 0.00 | 28 | 1011.8 |
| 20260902212235 | 104 | 180 | 5.0 | 10.0 | 0.00 | 0.00 | 0.00 | 28 | 1011.7 |
| 20260902212115 | 104 | 224 | 4.0 | 11.0 | 0.00 | 0.00 | 0.00 | 28 | 1011.8 |
| 20260902212030 | 104 | 233 | 3.0 | 11.0 | 0.00 | 0.00 | 0.00 | 28 | 1011.8 |
| 20260902211946 | 104 | 231 | 2.0 | 11.0 | 0.00 | 0.00 | 0.00 | 28 | 1011.7 |
| 20260902211834 | 103 | 231 | 2.0 | 11.0 | 0.00 | 0.00 | 0.00 | 28 | 1011.7 |
| 20260902211755 | 103 | 226 | 2.0 | 11.0 | 0.00 | 0.00 | 0.00 | 28 | 1011.7 |
| 20260902211642 | 103 | 225 | 4.0 | 11.0 | 0.00 | 0.00 | 0.00 | 28 | 1011.8 |
| 20260902211543 | 103 | 229 | 5.0 | 11.0 | 0.00 | 0.00 | 0.00 | 28 | 1011.8 |
| 20260902211453 | 103 | 226 | 6.0 | 11.0 | 0.00 | 0.00 | 0.00 | 28 | 1011.8 |
| 20260902211317 | 103 | 243 | 5.0 | 11.0 | 0.00 | 0.00 | 0.00 | 28 | 1011.8 |
| 20260902211218 | 103 | 259 | 4.0 | 10.0 | 0.00 | 0.00 | 0.00 | 28 | 1011.9 |
| 20260902211128 | 103 | 253 | 3.0 | 8.0 | 0.00 | 0.00 | 0.00 | 29 | 1011.8 |
| 20260902211028 | 103 | 360 | 1.0 | 8.0 | 0.00 | 0.00 | 0.00 | 29 | 1011.9 |
| 20260902210929 | 103 | 244 | 0.0 | 10.0 | 0.00 | 0.00 | 0.00 | 30 | 1011.9 |
| 20260902210839 | 103 | 244 | 1.0 | 11.0 | 0.00 | 0.00 | 0.00 | 29 | 1011.9 |
| 20260902210721 | 103 | 244 | 1.0 | 11.0 | 0.00 | 0.00 | 0.00 | 29 | 1012.0 |
| 20260902210626 | 102 | 244 | 1.0 | 11.0 | 0.00 | 0.00 | 0.00 | 29 | 1012.0 |
| 20260902210536 | 103 | 244 | 2.0 | 11.0 | 0.00 | 0.00 | 0.00 | 29 | 1012.0 |
| 20260902210418 | 103 | 245 | 2.0 | 11.0 | 0.00 | 0.00 | 0.00 | 29 | 1012.1 |
| 20260902210339 | 103 | 260 | 3.0 | 11.0 | 0.00 | 0.00 | 0.00 | 28 | 1012.0 |
| 20260902210227 | 103 | 278 | 5.0 | 11.0 | 0.00 | 0.00 | 0.00 | 29 | 1012.0 |
| 20260902210129 | 103 | 281 | 6.0 | 11.0 | 0.00 | 0.00 | 0.00 | 28 | 1012.1 |
| 20260902210051 | 103 | 276 | 6.0 | 11.0 | 0.00 | 0.00 | 0.00 | 28 | 1012.1 |
| 20260902205943 | 103 | 243 | 5.0 | 11.0 | 0.00 | 0.00 | 0.00 | 29 | 1012.0 |
| 20260902205824 | 103 | 203 | 4.0 | 10.0 | 0.00 | 0.00 | 0.00 | 29 | 1012.0 |
| 20260902205734 | 104 | 203 | 5.0 | 10.0 | 0.00 | 0.00 | 0.00 | 29 | 1012.0 |
| 20260902205633 | 103 | 200 | 5.0 | 10.0 | 0.00 | 0.00 | 0.00 | 28 | 1012.1 |
| 20260902205536 | 103 | 193 | 2.0 | 9.0 | 0.00 | 0.00 | 0.00 | 29 | 1012.1 |
| 20260902205425 | 103 | 192 | 2.0 | 9.0 | 0.00 | 0.00 | 0.00 | 29 | 1012.1 |
| 20260902205350 | 102 | 193 | 1.0 | 11.0 | 0.00 | 0.00 | 0.00 | 29 | 1012.1 |
| 20260902205216 | 102 | 193 | 1.0 | 11.0 | 0.00 | 0.00 | 0.00 | 29 | 1012.2 |
| 20260902205118 | 102 | 193 | 1.0 | 11.0 | 0.00 | 0.00 | 0.00 | 29 | 1012.2 |
| 20260902205028 | 102 | 193 | 2.0 | 11.0 | 0.00 | 0.00 | 0.00 | 29 | 1012.1 |
| 20260902204928 | 102 | 193 | 3.0 | 11.0 | 0.00 | 0.00 | 0.00 | 28 | 1012.2 |
| 20260902204828 | 102 | 193 | 4.0 | 11.0 | 0.00 | 0.00 | 0.00 | 29 | 1012.3 |
| 20260902204737 | 103 | 193 | 6.0 | 11.0 | 0.00 | 0.00 | 0.00 | 28 | 1012.3 |
| 20260902204621 | 103 | 193 | 5.0 | 11.0 | 0.00 | 0.00 | 0.00 | 28 | 1012.3 |
| 20260902204523 | 103 | 203 | 3.0 | 11.0 | 0.00 | 0.00 | 0.00 | 29 | 1012.2 |
| 20260902204433 | 102 | 232 | 1.0 | 6.0 | 0.00 | 0.00 | 0.00 | 29 | 1012.2 |
| 20260902204316 | 102 | 237 | 1.0 | 6.0 | 0.00 | 0.00 | 0.00 | 28 | 1012.2 |
| 20260902204218 | 102 | 241 | 1.0 | 6.0 | 0.00 | 0.00 | 0.00 | 28 | 1012.3 |
| 20260902204120 | 102 | 243 | 2.0 | 6.0 | 0.00 | 0.00 | 0.00 | 29 | 1012.4 |
| 20260902204035 | 102 | 245 | 2.0 | 6.0 | 0.00 | 0.00 | 0.00 | 29 | 1012.4 |
| 20260902203916 | 102 | 245 | 1.0 | 7.0 | 0.00 | 0.00 | 0.00 | 29 | 1012.3 |
| 20260902203817 | 102 | 245 | 1.0 | 9.0 | 0.00 | 0.00 | 0.00 | 30 | 1012.2 |
| 20260902203726 | 102 | 246 | 1.0 | 9.0 | 0.00 | 0.00 | 0.00 | 30 | 1012.3 |
| 20260902203626 | 102 | 247 | 2.0 | 9.0 | 0.00 | 0.00 | 0.00 | 30 | 1012.4 |
| 20260902203528 | 102 | 243 | 2.0 | 9.0 | 0.00 | 0.00 | 0.00 | 29 | 1012.3 |
| 20260902203441 | 102 | 243 | 2.0 | 13.0 | 0.00 | 0.00 | 0.00 | 29 | 1012.3 |
| 20260902203323 | 102 | 243 | 2.0 | 13.0 | 0.00 | 0.00 | 0.00 | 29 | 1012.3 |
| 20260902203225 | 102 | 243 | 3.0 | 13.0 | 0.00 | 0.00 | 0.00 | 30 | 1012.4 |
| 20260902203124 | 102 | 243 | 3.0 | 13.0 | 0.00 | 0.00 | 0.00 | 29 | 1012.4 |
| 20260902203032 | 102 | 245 | 2.0 | 13.0 | 0.00 | 0.00 | 0.00 | 30 | 1012.4 |
| 20260902202940 | 102 | 197 | 2.0 | 13.0 | 0.00 | 0.00 | 0.00 | 29 | 1012.4 |
| 20260902202818 | 102 | 196 | 4.0 | 13.0 | 0.00 | 0.00 | 0.00 | 28 | 1012.5 |
| 20260902202722 | 103 | 196 | 6.0 | 13.0 | 0.00 | 0.00 | 0.00 | 28 | 1012.5 |
| 20260902202633 | 103 | 201 | 6.0 | 13.0 | 0.00 | 0.00 | 0.00 | 28 | 1012.5 |
| 20260902202554 | 103 | 243 | 3.0 | 9.0 | 0.00 | 0.00 | 0.00 | 28 | 1012.4 |
| 20260902202439 | 103 | 227 | 2.0 | 9.0 | 0.00 | 0.00 | 0.00 | 28 | 1012.4 |
| 20260902202340 | 103 | 272 | 2.0 | 10.0 | 0.00 | 0.00 | 0.00 | 28 | 1012.5 |
| 20260902202220 | 103 | 270 | 3.0 | 10.0 | 0.00 | 0.00 | 0.00 | 28 | 1012.4 |
| 20260902202130 | 103 | 270 | 4.0 | 10.0 | 0.00 | 0.00 | 0.00 | 28 | 1012.4 |
| 20260902202015 | 103 | 262 | 4.0 | 10.0 | 0.00 | 0.00 | 0.00 | 28 | 1012.6 |
| 20260902201917 | 103 | 248 | 4.0 | 10.0 | 0.00 | 0.00 | 0.00 | 28 | 1012.5 |
| 20260902201817 | 103 | 245 | 4.0 | 10.0 | 0.00 | 0.00 | 0.00 | 28 | 1012.5 |
| 20260902201724 | 103 | 266 | 4.0 | 10.0 | 0.00 | 0.00 | 0.00 | 29 | 1012.6 |
| 20260902201633 | 103 | 229 | 4.0 | 10.0 | 0.00 | 0.00 | 0.00 | 28 | 1012.6 |
| 20260902201532 | 103 | 252 | 3.0 | 10.0 | 0.00 | 0.00 | 0.00 | 28 | 1012.6 |
| 20260902201501 | 103 | 248 | 2.0 | 10.0 | 0.00 | 0.00 | 0.00 | 29 | 1012.7 |
| 20260902201324 | 102 | 238 | 3.0 | 9.0 | 0.00 | 0.00 | 0.00 | 29 | 1012.6 |
| 20260902201243 | 102 | 238 | 4.0 | 11.0 | 0.00 | 0.00 | 0.00 | 29 | 1012.7 |
| 20260902201132 | 102 | 229 | 3.0 | 11.0 | 0.00 | 0.00 | 0.00 | 29 | 1012.7 |
| 20260902201033 | 102 | 231 | 3.0 | 11.0 | 0.00 | 0.00 | 0.00 | 28 | 1012.7 |
| 20260902200933 | 102 | 231 | 3.0 | 11.0 | 0.00 | 0.00 | 0.00 | 28 | 1012.7 |
| 20260902200841 | 102 | 229 | 2.0 | 11.0 | 0.00 | 0.00 | 0.00 | 28 | 1012.9 |
| 20260902200726 | 102 | 226 | 1.0 | 11.0 | 0.00 | 0.00 | 0.00 | 27 | 1012.8 |
| 20260902200627 | 102 | 226 | 2.0 | 12.0 | 0.00 | 0.00 | 0.00 | 28 | 1012.9 |
| 20260902200536 | 102 | 226 | 3.0 | 12.0 | 0.00 | 0.00 | 0.00 | 28 | 1012.9 |
| 20260902200418 | 102 | 226 | 3.0 | 12.0 | 0.00 | 0.00 | 0.00 | 28 | 1013.0 |
| 20260902200318 | 102 | 259 | 3.0 | 12.0 | 0.00 | 0.00 | 0.00 | 29 | 1013.0 |
| 20260902200221 | 101 | 262 | 3.0 | 12.0 | 0.00 | 0.00 | 0.00 | 29 | 1013.0 |
| 20260902200149 | 101 | 253 | 4.0 | 12.0 | 0.00 | 0.00 | 0.00 | 29 | 1013.0 |
| 20260902200032 | 101 | 252 | 5.0 | 12.0 | 0.00 | 0.00 | 0.00 | 29 | 1013.0 |
| 20260902195922 | 101 | 259 | 5.0 | 12.0 | 0.00 | 0.00 | 0.00 | 28 | 1012.9 |
| 20260902195850 | 102 | 255 | 3.0 | 10.0 | 0.00 | 0.00 | 0.00 | 28 | 1012.9 |
| 20260902195729 | 102 | 240 | 3.0 | 9.0 | 0.00 | 0.00 | 0.00 | 29 | 1012.9 |
| 20260902195639 | 102 | 238 | 4.0 | 12.0 | 0.00 | 0.00 | 0.00 | 29 | 1012.9 |
| 20260902195541 | 102 | 236 | 4.0 | 12.0 | 0.00 | 0.00 | 0.00 | 29 | 1013.0 |
| 20260902195421 | 102 | 235 | 4.0 | 12.0 | 0.00 | 0.00 | 0.00 | 29 | 1013.0 |
| 20260902195335 | 102 | 274 | 4.0 | 12.0 | 0.00 | 0.00 | 0.00 | 28 | 1013.0 |
| 20260902195217 | 102 | 266 | 3.0 | 12.0 | 0.00 | 0.00 | 0.00 | 29 | 1013.0 |
| 20260902195140 | 102 | 198 | 3.0 | 12.0 | 0.00 | 0.00 | 0.00 | 28 | 1013.0 |
| 20260902195028 | 102 | 219 | 4.0 | 12.0 | 0.00 | 0.00 | 0.00 | 28 | 1012.9 |
| 20260902194930 | 103 | 228 | 5.0 | 12.0 | 0.00 | 0.00 | 0.00 | 27 | 1012.9 |
| 20260902194831 | 103 | 232 | 3.0 | 12.0 | 0.00 | 0.00 | 0.00 | 28 | 1013.0 |
| 20260902194717 | 103 | 272 | 1.0 | 10.0 | 0.00 | 0.00 | 0.00 | 28 | 1013.0 |
| 20260902194627 | 103 | 275 | 0.0 | 10.0 | 0.00 | 0.00 | 0.00 | 29 | 1013.0 |
| 20260902194547 | 102 | 274 | 0.0 | 10.0 | 0.00 | 0.00 | 0.00 | 30 | 1013.0 |
| 20260902194435 | 102 | 274 | 1.0 | 10.0 | 0.00 | 0.00 | 0.00 | 30 | 1013.0 |
| 20260902194316 | 102 | 275 | 2.0 | 10.0 | 0.00 | 0.00 | 0.00 | 29 | 1013.1 |
| 20260902194218 | 101 | 274 | 3.0 | 10.0 | 0.00 | 0.00 | 0.00 | 29 | 1013.1 |
| 20260902194123 | 101 | 274 | 5.0 | 10.0 | 0.00 | 0.00 | 0.00 | 29 | 1013.2 |
| 20260902194033 | 101 | 275 | 4.0 | 10.0 | 0.00 | 0.00 | 0.00 | 29 | 1013.2 |
| 20260902193933 | 101 | 279 | 2.0 | 8.0 | 0.00 | 0.00 | 0.00 | 29 | 1013.2 |
| 20260902193841 | 101 | 273 | 3.0 | 8.0 | 0.00 | 0.00 | 0.00 | 29 | 1013.2 |
| 20260902193741 | 101 | 276 | 4.0 | 8.0 | 0.00 | 0.00 | 0.00 | 29 | 1013.2 |
| 20260902193621 | 101 | 275 | 4.0 | 8.0 | 0.00 | 0.00 | 0.00 | 30 | 1013.3 |
| 20260902193527 | 101 | 278 | 4.0 | 9.0 | 0.00 | 0.00 | 0.00 | 29 | 1013.3 |
| 20260902193437 | 101 | 278 | 3.0 | 9.0 | 0.00 | 0.00 | 0.00 | 30 | 1013.3 |
| 20260902193338 | 101 | 253 | 2.0 | 9.0 | 0.00 | 0.00 | 0.00 | 30 | 1013.4 |
| 20260902193246 | 101 | 253 | 2.0 | 9.0 | 0.00 | 0.00 | 0.00 | 30 | 1013.3 |
| 20260902193123 | 101 | 255 | 2.0 | 9.0 | 0.00 | 0.00 | 0.00 | 30 | 1013.4 |